Time,TemperatureF,DewpointF,PressureIn,WindDirection,WindDirectionDegrees,WindSpeedMPH,WindSpeedGustMPH,Humidity,HourlyPrecipIn,Conditions,Clouds,dailyrainin,SoftwareType,DateUTC
2013-03-17 00:01:00,60.0,52.4,29.85,WSW,254,0.0,0.0,76,0.00,,---,0.00,VWS V14.01,2013-03-17 05:01:00,
2013-03-17 00:03:00,59.9,52.3,29.85,WSW,254,0.0,0.0,76,0.00,,---,0.00,VWS V14.01,2013-03-17 05:03:00,
2013-03-17 00:05:00,59.7,52.5,29.85,WSW,255,0.0,0.0,77,0.00,,---,0.00,VWS V14.01,2013-03-17 05:05:00,
2013-03-17 00:06:00,59.6,52.4,29.85,WSW,254,0.0,0.0,77,0.00,,---,0.00,VWS V14.01,2013-03-17 05:06:00,
2013-03-17 00:08:00,59.5,52.3,29.85,WSW,254,0.0,0.0,77,0.00,,---,0.00,VWS V14.01,2013-03-17 05:08:00,
2013-03-17 00:11:00,59.3,52.1,29.85,WSW,254,0.0,0.0,77,0.00,,---,0.00,VWS V14.01,2013-03-17 05:11:00,
2013-03-17 00:12:00,59.3,52.5,29.85,WSW,255,0.0,0.0,78,0.00,,---,0.00,VWS V14.01,2013-03-17 05:12:00,
2013-03-17 00:14:00,59.2,52.3,29.85,WSW,253,0.0,0.0,78,0.00,,---,0.00,VWS V14.01,2013-03-17 05:14:00,
2013-03-17 00:17:00,59.2,52.3,29.86,WSW,254,0.0,0.0,78,0.00,,---,0.00,VWS V14.01,2013-03-17 05:17:00,
2013-03-17 00:18:00,59.3,52.5,29.86,WSW,255,0.0,0.0,78,0.00,,---,0.00,VWS V14.01,2013-03-17 05:18:00,
2013-03-17 00:19:00,59.3,52.5,29.85,WSW,254,0.0,0.0,78,0.00,,---,0.00,VWS V14.01,2013-03-17 05:19:00,
2013-03-17 00:22:00,59.3,52.0,29.85,WSW,255,0.0,1.0,78,0.00,,,0.00,weatherlink.com 1.10,2013-03-17 05:22:00,
2013-03-17 00:23:00,59.3,52.5,29.85,WSW,254,0.0,0.0,78,0.00,,---,0.00,VWS V14.01,2013-03-17 05:23:00,
2013-03-17 00:24:00,59.3,52.5,29.85,WSW,254,0.0,0.0,78,0.00,,---,0.00,VWS V14.01,2013-03-17 05:24:00,
2013-03-17 00:27:00,59.2,52.3,29.85,WSW,255,0.0,0.0,78,0.00,,---,0.00,VWS V14.01,2013-03-17 05:27:00,
2013-03-17 00:28:00,59.2,52.3,29.85,WSW,255,0.0,0.0,78,0.00,,---,0.00,VWS V14.01,2013-03-17 05:28:00,
2013-03-17 00:29:00,59.1,52.3,29.85,WSW,255,0.0,0.0,78,0.00,,---,0.00,VWS V14.01,2013-03-17 05:29:00,
2013-03-17 00:32:00,59.0,52.2,29.85,WSW,254,0.0,0.0,78,0.00,,---,0.00,VWS V14.01,2013-03-17 05:32:00,
2013-03-17 00:33:00,59.0,52.2,29.85,WSW,254,0.0,0.0,78,0.00,,---,0.00,VWS V14.01,2013-03-17 05:33:00,
2013-03-17 00:34:00,58.9,52.1,29.85,WSW,255,0.0,0.0,78,0.00,,---,0.00,VWS V14.01,2013-03-17 05:34:00,
2013-03-17 00:37:00,58.9,52.1,29.85,WSW,255,0.0,0.0,78,0.00,,---,0.00,VWS V14.01,2013-03-17 05:37:00,
2013-03-17 00:38:00,58.9,52.1,29.85,WSW,254,0.0,0.0,78,0.00,,---,0.00,VWS V14.01,2013-03-17 05:38:00,
2013-03-17 00:39:00,58.9,52.4,29.85,WSW,253,0.0,0.0,79,0.00,,---,0.00,VWS V14.01,2013-03-17 05:39:00,
2013-03-17 00:42:00,58.8,52.3,29.85,WSW,255,0.0,1.0,79,0.00,,---,0.00,VWS V14.01,2013-03-17 05:42:00,
2013-03-17 00:43:00,58.8,52.3,29.85,WSW,255,0.0,1.0,79,0.00,,---,0.00,VWS V14.01,2013-03-17 05:43:00,
2013-03-17 00:44:00,58.9,52.1,29.85,WSW,255,0.0,1.0,78,0.00,,---,0.00,VWS V14.01,2013-03-17 05:44:00,
2013-03-17 00:47:00,58.8,52.0,29.85,WSW,255,0.0,0.0,78,0.00,,---,0.00,VWS V14.01,2013-03-17 05:47:00,
2013-03-17 00:48:00,58.8,52.0,29.85,WSW,254,0.0,0.0,78,0.00,,---,0.00,VWS V14.01,2013-03-17 05:48:00,
2013-03-17 00:49:00,58.8,52.0,29.85,WSW,254,0.0,0.0,78,0.00,,---,0.00,VWS V14.01,2013-03-17 05:49:00,
2013-03-17 00:52:00,58.8,52.3,29.85,WSW,254,0.0,0.0,79,0.00,,---,0.00,VWS V14.01,2013-03-17 05:52:00,
2013-03-17 00:53:00,58.8,52.3,29.85,WSW,254,0.0,0.0,79,0.00,,---,0.00,VWS V14.01,2013-03-17 05:53:00,
2013-03-17 00:55:00,58.8,52.3,29.85,WSW,255,0.0,0.0,79,0.00,,---,0.00,VWS V14.01,2013-03-17 05:55:00,
2013-03-17 00:57:00,58.7,52.2,29.85,WSW,255,0.0,0.0,79,0.00,,---,0.00,VWS V14.01,2013-03-17 05:57:00,
2013-03-17 00:58:00,58.7,52.2,29.85,WSW,255,0.0,0.0,79,0.00,,---,0.00,VWS V14.01,2013-03-17 05:58:00,
2013-03-17 01:00:00,58.7,52.2,29.85,WSW,255,0.0,0.0,79,0.00,,---,0.00,VWS V14.01,2013-03-17 06:00:00,
2013-03-17 01:03:00,58.6,52.1,29.85,WSW,254,0.0,0.0,79,0.00,,---,0.00,VWS V14.01,2013-03-17 06:03:00,
2013-03-17 01:05:00,58.6,52.1,29.85,WSW,254,0.0,0.0,79,0.00,,---,0.00,VWS V14.01,2013-03-17 06:05:00,
2013-03-17 01:08:00,58.6,52.1,29.85,WSW,255,0.0,0.0,79,0.00,,---,0.00,VWS V14.01,2013-03-17 06:08:00,
2013-03-17 01:10:00,58.6,52.1,29.85,WSW,254,0.0,0.0,79,0.00,,---,0.00,VWS V14.01,2013-03-17 06:10:00,
2013-03-17 01:13:00,58.7,51.9,29.85,WSW,254,1.0,1.0,78,0.00,,---,0.00,VWS V14.01,2013-03-17 06:13:00,
2013-03-17 01:15:00,58.8,52.0,29.85,WSW,254,1.0,1.0,78,0.00,,---,0.00,VWS V14.01,2013-03-17 06:15:00,
2013-03-17 01:18:00,59.0,52.2,29.85,WSW,255,0.0,1.0,78,0.00,,---,0.00,VWS V14.01,2013-03-17 06:18:00,
2013-03-17 01:19:00,59.0,52.2,29.85,WSW,255,1.0,1.0,78,0.00,,---,0.00,VWS V14.01,2013-03-17 06:19:00,
2013-03-17 01:20:00,59.0,52.2,29.85,WSW,255,0.0,1.0,78,0.00,,---,0.00,VWS V14.01,2013-03-17 06:20:00,
2013-03-17 01:23:00,59.0,52.2,29.85,WSW,255,0.0,1.0,78,0.00,,---,0.00,VWS V14.01,2013-03-17 06:23:00,
2013-03-17 01:24:00,59.0,52.2,29.85,WSW,254,0.0,1.0,78,0.00,,---,0.00,VWS V14.01,2013-03-17 06:24:00,
2013-03-17 01:25:00,58.9,52.1,29.85,SW,234,1.0,2.0,78,0.00,,---,0.00,VWS V14.01,2013-03-17 06:25:00,
2013-03-17 01:28:00,58.9,52.1,29.85,SSW,202,3.0,3.0,78,0.00,,---,0.00,VWS V14.01,2013-03-17 06:28:00,
2013-03-17 01:29:00,58.9,52.1,29.85,SW,219,0.0,3.0,78,0.00,,---,0.00,VWS V14.01,2013-03-17 06:29:00,
2013-03-17 01:30:00,59.0,52.2,29.85,SW,234,1.0,1.0,78,0.00,,---,0.00,VWS V14.01,2013-03-17 06:30:00,
2013-03-17 01:33:00,59.1,52.3,29.85,SW,219,1.0,3.0,78,0.00,,---,0.00,VWS V14.01,2013-03-17 06:33:00,
2013-03-17 01:34:00,59.1,51.9,29.85,SW,219,1.0,3.0,77,0.00,,---,0.00,VWS V14.01,2013-03-17 06:34:00,
2013-03-17 01:35:00,59.2,52.0,29.85,SW,214,2.0,3.0,77,0.00,,---,0.00,VWS V14.01,2013-03-17 06:35:00,
2013-03-17 01:38:00,59.3,52.1,29.85,SW,235,2.0,3.0,77,0.00,,---,0.00,VWS V14.01,2013-03-17 06:38:00,
2013-03-17 01:39:00,59.4,52.2,29.85,SW,232,1.0,3.0,77,0.00,,---,0.00,VWS V14.01,2013-03-17 06:39:00,
2013-03-17 01:41:00,59.5,52.3,29.85,SW,232,1.0,3.0,77,0.00,,---,0.00,VWS V14.01,2013-03-17 06:41:00,
2013-03-17 01:43:00,59.5,52.3,29.85,SW,221,1.0,3.0,77,0.00,,---,0.00,VWS V14.01,2013-03-17 06:43:00,
2013-03-17 01:44:00,59.6,52.0,29.85,SW,221,2.0,3.0,76,0.00,,---,0.00,VWS V14.01,2013-03-17 06:44:00,
2013-03-17 01:46:00,59.7,52.1,29.85,SW,231,2.0,2.0,76,0.00,,---,0.00,VWS V14.01,2013-03-17 06:46:00,
2013-03-17 01:48:00,59.8,52.2,29.85,SW,223,1.0,3.0,76,0.00,,---,0.00,VWS V14.01,2013-03-17 06:48:00,
2013-03-17 01:49:00,59.8,52.2,29.85,SW,216,2.0,3.0,76,0.00,,---,0.00,VWS V14.01,2013-03-17 06:49:00,
2013-03-17 01:51:00,59.9,52.3,29.85,SSW,209,1.0,3.0,76,0.00,,---,0.00,VWS V14.01,2013-03-17 06:51:00,
2013-03-17 01:54:00,59.9,52.3,29.85,SW,215,1.0,3.0,76,0.00,,---,0.00,VWS V14.01,2013-03-17 06:54:00,
2013-03-17 01:56:00,60.0,52.1,29.85,SW,231,1.0,3.0,75,0.00,,---,0.00,VWS V14.01,2013-03-17 06:56:00,
2013-03-17 01:59:00,60.0,52.1,29.85,WSW,238,2.0,3.0,75,0.00,,---,0.00,VWS V14.01,2013-03-17 06:59:00,
2013-03-17 02:00:00,60.0,52.1,29.85,SSW,212,2.0,3.0,75,0.00,,---,0.00,VWS V14.01,2013-03-17 07:00:00,
2013-03-17 02:01:00,60.0,52.1,29.85,SW,219,1.0,2.0,75,0.00,,---,0.00,VWS V14.01,2013-03-17 07:01:00,
2013-03-17 02:04:00,60.0,52.1,29.85,SW,227,3.0,4.0,75,0.00,,---,0.00,VWS V14.01,2013-03-17 07:04:00,
2013-03-17 02:05:00,60.0,52.1,29.85,SW,225,1.0,4.0,75,0.00,,---,0.00,VWS V14.01,2013-03-17 07:05:00,
2013-03-17 02:06:00,60.0,52.1,29.85,SW,225,2.0,4.0,75,0.00,,---,0.00,VWS V14.01,2013-03-17 07:06:00,
2013-03-17 02:09:00,60.0,52.1,29.85,SW,224,2.0,4.0,75,0.00,,---,0.00,VWS V14.01,2013-03-17 07:09:00,
2013-03-17 02:10:00,60.0,52.1,29.85,SSW,198,4.0,4.0,75,0.00,,---,0.00,VWS V14.01,2013-03-17 07:10:00,
2013-03-17 02:11:00,60.0,52.1,29.85,SW,218,1.0,4.0,75,0.00,,---,0.00,VWS V14.01,2013-03-17 07:11:00,
2013-03-17 02:14:00,60.1,52.2,29.85,SW,223,3.0,4.0,75,0.00,,---,0.00,VWS V14.01,2013-03-17 07:14:00,
2013-03-17 02:15:00,60.1,52.2,29.85,SW,224,2.0,4.0,75,0.00,,---,0.00,VWS V14.01,2013-03-17 07:15:00,
2013-03-17 02:16:00,60.1,52.2,29.85,SW,216,2.0,3.0,75,0.00,,---,0.00,VWS V14.01,2013-03-17 07:16:00,
2013-03-17 02:19:00,60.1,52.2,29.85,SSW,210,2.0,4.0,75,0.00,,---,0.00,VWS V14.01,2013-03-17 07:19:00,
2013-03-17 02:20:00,60.1,52.2,29.85,WSW,238,1.0,4.0,75,0.00,,---,0.00,VWS V14.01,2013-03-17 07:20:00,
2013-03-17 02:21:00,60.1,52.2,29.85,SW,217,2.0,4.0,75,0.00,,---,0.00,VWS V14.01,2013-03-17 07:21:00,
2013-03-17 02:24:00,60.1,52.2,29.85,SW,223,1.0,4.0,75,0.00,,---,0.00,VWS V14.01,2013-03-17 07:24:00,
2013-03-17 02:25:00,60.1,52.2,29.85,SW,229,2.0,4.0,75,0.00,,---,0.00,VWS V14.01,2013-03-17 07:25:00,
2013-03-17 02:27:00,60.1,52.2,29.85,SW,233,1.0,4.0,75,0.00,,---,0.00,VWS V14.01,2013-03-17 07:27:00,
2013-03-17 02:29:00,60.1,52.2,29.85,SW,223,2.0,4.0,75,0.00,,---,0.00,VWS V14.01,2013-03-17 07:29:00,
2013-03-17 02:30:00,60.1,52.2,29.85,SW,224,2.0,4.0,75,0.00,,---,0.00,VWS V14.01,2013-03-17 07:30:00,
2013-03-17 02:31:00,60.1,52.2,29.85,WSW,237,1.0,3.0,75,0.00,,---,0.00,VWS V14.01,2013-03-17 07:31:00,
2013-03-17 02:33:00,60.1,52.2,29.85,SW,233,2.0,3.0,75,0.00,,---,0.00,VWS V14.01,2013-03-17 07:33:00,
2013-03-17 02:35:00,60.1,52.2,29.85,SW,231,1.0,3.0,75,0.00,,---,0.00,VWS V14.01,2013-03-17 07:35:00,
2013-03-17 02:36:00,60.1,52.2,29.85,WSW,242,2.0,3.0,75,0.00,,---,0.00,VWS V14.01,2013-03-17 07:36:00,
2013-03-17 02:38:00,60.1,52.2,29.85,SW,236,2.0,3.0,75,0.00,,---,0.00,VWS V14.01,2013-03-17 07:38:00,
2013-03-17 02:40:00,60.1,52.2,29.85,WSW,238,1.0,4.0,75,0.00,,---,0.00,VWS V14.01,2013-03-17 07:40:00,
2013-03-17 02:41:00,60.2,51.9,29.85,WSW,242,1.0,4.0,74,0.00,,---,0.00,VWS V14.01,2013-03-17 07:41:00,
2013-03-17 02:43:00,60.2,51.9,29.85,WSW,242,0.0,4.0,74,0.00,,---,0.00,VWS V14.01,2013-03-17 07:43:00,
2013-03-17 02:45:00,60.1,51.8,29.85,WSW,241,1.0,4.0,74,0.00,,---,0.00,VWS V14.01,2013-03-17 07:45:00,
2013-03-17 02:46:00,60.0,51.7,29.85,WSW,241,0.0,0.0,74,0.00,,---,0.00,VWS V14.01,2013-03-17 07:46:00,
2013-03-17 02:48:00,60.0,52.1,29.85,WSW,240,0.0,0.0,75,0.00,,---,0.00,VWS V14.01,2013-03-17 07:48:00,
2013-03-17 02:50:00,59.8,51.9,29.85,WSW,240,0.0,0.0,75,0.00,,---,0.00,VWS V14.01,2013-03-17 07:50:00,
2013-03-17 02:51:00,59.7,51.8,29.85,WSW,240,1.0,1.0,75,0.00,,---,0.00,VWS V14.01,2013-03-17 07:51:00,
2013-03-17 02:53:00,59.6,51.7,29.85,WSW,240,0.0,1.0,75,0.00,,---,0.00,VWS V14.01,2013-03-17 07:53:00,
2013-03-17 02:55:00,59.5,51.6,29.85,WSW,240,0.0,1.0,75,0.00,,---,0.00,VWS V14.01,2013-03-17 07:55:00,
2013-03-17 02:57:00,59.4,51.8,29.85,WSW,240,1.0,1.0,76,0.00,,---,0.00,VWS V14.01,2013-03-17 07:57:00,
2013-03-17 02:58:00,59.3,51.8,29.85,WSW,240,1.0,1.0,76,0.00,,---,0.00,VWS V14.01,2013-03-17 07:58:00,
2013-03-17 03:00:00,59.3,51.8,29.85,WSW,239,0.0,1.0,76,0.00,,---,0.00,VWS V14.01,2013-03-17 08:00:00,
2013-03-17 03:02:00,59.2,51.7,29.85,WSW,240,0.0,0.0,76,0.00,,---,0.00,VWS V14.01,2013-03-17 08:02:00,
2013-03-17 03:03:00,59.1,51.5,29.85,WSW,240,0.0,0.0,76,0.00,,---,0.00,VWS V14.01,2013-03-17 08:03:00,
2013-03-17 03:05:00,59.0,51.5,29.85,WSW,240,0.0,0.0,76,0.00,,---,0.00,VWS V14.01,2013-03-17 08:05:00,
2013-03-17 03:07:00,58.9,51.7,29.85,WSW,239,0.0,0.0,77,0.00,,---,0.00,VWS V14.01,2013-03-17 08:07:00,
2013-03-17 03:08:00,58.8,51.6,29.85,WSW,240,0.0,0.0,77,0.00,,---,0.00,VWS V14.01,2013-03-17 08:08:00,
2013-03-17 03:10:00,58.7,51.5,29.85,WSW,240,0.0,0.0,77,0.00,,---,0.00,VWS V14.01,2013-03-17 08:10:00,
2013-03-17 03:12:00,58.6,51.4,29.85,WSW,240,0.0,0.0,77,0.00,,---,0.00,VWS V14.01,2013-03-17 08:12:00,
2013-03-17 03:13:00,58.4,51.2,29.85,WSW,240,0.0,0.0,77,0.00,,---,0.00,VWS V14.01,2013-03-17 08:13:00,
2013-03-17 03:15:00,58.3,51.5,29.85,WSW,240,0.0,0.0,78,0.00,,---,0.00,VWS V14.01,2013-03-17 08:15:00,
2013-03-17 03:17:00,58.2,51.4,29.85,WSW,240,0.0,0.0,78,0.00,,---,0.00,VWS V14.01,2013-03-17 08:17:00,
2013-03-17 03:18:00,58.0,51.2,29.85,WSW,240,0.0,0.0,78,0.00,,---,0.00,VWS V14.01,2013-03-17 08:18:00,
2013-03-17 03:20:00,57.9,51.1,29.85,WSW,240,0.0,0.0,78,0.00,,---,0.00,VWS V14.01,2013-03-17 08:20:00,
2013-03-17 03:22:00,57.8,51.0,29.85,WSW,239,0.0,0.0,78,0.00,,---,0.00,VWS V14.01,2013-03-17 08:22:00,
2013-03-17 03:23:00,57.6,51.1,29.85,WSW,240,0.0,0.0,79,0.00,,---,0.00,VWS V14.01,2013-03-17 08:23:00,
2013-03-17 03:25:00,57.5,51.0,29.85,WSW,240,0.0,0.0,79,0.00,,---,0.00,VWS V14.01,2013-03-17 08:25:00,
2013-03-17 03:27:00,57.3,51.2,29.85,WSW,240,0.0,0.0,80,0.00,,---,0.00,VWS V14.01,2013-03-17 08:27:00,
2013-03-17 03:28:00,57.2,51.1,29.85,WSW,240,0.0,0.0,80,0.00,,---,0.00,VWS V14.01,2013-03-17 08:28:00,
2013-03-17 03:30:00,57.1,51.0,29.85,WSW,240,0.0,0.0,80,0.00,,---,0.00,VWS V14.01,2013-03-17 08:30:00,
2013-03-17 03:32:00,56.9,50.8,29.85,WSW,240,0.0,0.0,80,0.00,,---,0.00,VWS V14.01,2013-03-17 08:32:00,
2013-03-17 03:33:00,56.8,50.7,29.85,WSW,240,0.0,0.0,80,0.00,,---,0.00,VWS V14.01,2013-03-17 08:33:00,
2013-03-17 03:35:00,56.6,50.8,29.85,WSW,240,0.0,0.0,81,0.00,,---,0.00,VWS V14.01,2013-03-17 08:35:00,
2013-03-17 03:37:00,56.5,50.8,29.85,WSW,240,0.0,0.0,81,0.00,,---,0.00,VWS V14.01,2013-03-17 08:37:00,
2013-03-17 03:39:00,56.4,51.0,29.85,WSW,240,0.0,1.0,82,0.00,,---,0.00,VWS V14.01,2013-03-17 08:39:00,
2013-03-17 03:40:00,56.4,51.0,29.85,WSW,239,0.0,1.0,82,0.00,,---,0.00,VWS V14.01,2013-03-17 08:40:00,
2013-03-17 03:42:00,56.3,50.9,29.85,WSW,240,0.0,1.0,82,0.00,,---,0.00,VWS V14.01,2013-03-17 08:42:00,
2013-03-17 03:44:00,56.3,50.9,29.84,WSW,239,0.0,1.0,82,0.00,,---,0.00,VWS V14.01,2013-03-17 08:44:00,
2013-03-17 03:46:00,56.3,50.9,29.84,WSW,240,1.0,1.0,82,0.00,,---,0.00,VWS V14.01,2013-03-17 08:46:00,
2013-03-17 03:47:00,56.3,50.9,29.85,WSW,240,0.0,1.0,82,0.00,,---,0.00,VWS V14.01,2013-03-17 08:47:00,
2013-03-17 03:48:00,56.3,50.9,29.85,WSW,240,0.0,1.0,82,0.00,,---,0.00,VWS V14.01,2013-03-17 08:48:00,
2013-03-17 03:49:00,56.3,50.9,29.85,WSW,240,0.0,1.0,82,0.00,,---,0.00,VWS V14.01,2013-03-17 08:49:00,
2013-03-17 03:51:00,56.4,51.0,29.84,WSW,239,1.0,1.0,82,0.00,,---,0.00,VWS V14.01,2013-03-17 08:51:00,
2013-03-17 03:52:00,56.5,51.1,29.84,SW,227,1.0,2.0,82,0.00,,---,0.00,VWS V14.01,2013-03-17 08:52:00,
2013-03-17 03:53:00,56.5,51.1,29.84,SW,226,0.0,2.0,82,0.00,,---,0.00,VWS V14.01,2013-03-17 08:53:00,
2013-03-17 03:54:00,56.5,51.1,29.84,SW,226,0.0,2.0,82,0.00,,---,0.00,VWS V14.01,2013-03-17 08:54:00,
2013-03-17 03:57:00,56.5,51.1,29.84,SW,226,0.0,2.0,82,0.00,,---,0.00,VWS V14.01,2013-03-17 08:57:00,
2013-03-17 03:58:00,56.5,51.1,29.84,SW,227,0.0,2.0,82,0.00,,---,0.00,VWS V14.01,2013-03-17 08:58:00,
2013-03-17 03:59:00,56.6,51.2,29.84,SW,226,0.0,2.0,82,0.00,,---,0.00,VWS V14.01,2013-03-17 08:59:00,
2013-03-17 04:02:00,56.6,51.2,29.84,SW,227,0.0,0.0,82,0.00,,---,0.00,VWS V14.01,2013-03-17 09:02:00,
2013-03-17 04:03:00,56.6,51.2,29.84,SW,226,0.0,0.0,82,0.00,,---,0.00,VWS V14.01,2013-03-17 09:03:00,
2013-03-17 04:05:00,56.6,51.2,29.84,SW,227,0.0,0.0,82,0.00,,---,0.00,VWS V14.01,2013-03-17 09:05:00,
2013-03-17 04:08:00,56.7,51.3,29.84,SW,226,0.0,0.0,82,0.00,,---,0.00,VWS V14.01,2013-03-17 09:08:00,
2013-03-17 04:10:00,56.7,50.9,29.84,SW,226,0.0,1.0,81,0.00,,---,0.00,VWS V14.01,2013-03-17 09:10:00,
2013-03-17 04:13:00,56.8,51.0,29.84,SW,218,2.0,3.0,81,0.00,,---,0.00,VWS V14.01,2013-03-17 09:13:00,
2013-03-17 04:15:00,56.9,51.1,29.84,SW,218,1.0,3.0,81,0.00,,---,0.00,VWS V14.01,2013-03-17 09:15:00,
2013-03-17 04:18:00,56.9,51.1,29.84,SSW,209,1.0,2.0,81,0.00,,---,0.00,VWS V14.01,2013-03-17 09:18:00,
2013-03-17 04:21:00,57.0,51.2,29.84,SSW,210,1.0,2.0,81,0.00,,---,0.00,VWS V14.01,2013-03-17 09:21:00,
2013-03-17 04:23:00,57.0,51.2,29.84,WSW,238,2.0,2.0,81,0.00,,---,0.00,VWS V14.01,2013-03-17 09:23:00,
2013-03-17 04:24:00,57.0,51.2,29.84,WSW,238,1.0,2.0,81,0.00,,---,0.00,VWS V14.01,2013-03-17 09:24:00,
2013-03-17 04:26:00,57.0,51.2,29.84,SW,233,2.0,3.0,81,0.00,,---,0.00,VWS V14.01,2013-03-17 09:26:00,
2013-03-17 04:28:00,57.0,51.2,29.84,SW,234,0.0,3.0,81,0.00,,---,0.00,VWS V14.01,2013-03-17 09:28:00,
2013-03-17 04:29:00,57.0,51.2,29.84,SW,234,0.0,3.0,81,0.00,,---,0.00,VWS V14.01,2013-03-17 09:29:00,
2013-03-17 04:31:00,57.0,51.2,29.84,SW,233,0.0,0.0,81,0.00,,---,0.00,VWS V14.01,2013-03-17 09:31:00,
2013-03-17 04:34:00,56.9,51.1,29.84,SW,234,0.0,2.0,81,0.00,,---,0.00,VWS V14.01,2013-03-17 09:34:00,
2013-03-17 04:36:00,56.9,51.1,29.84,SW,233,0.0,2.0,81,0.00,,---,0.00,VWS V14.01,2013-03-17 09:36:00,
2013-03-17 04:39:00,56.8,51.0,29.84,SW,233,0.0,2.0,81,0.00,,---,0.00,VWS V14.01,2013-03-17 09:39:00,
2013-03-17 04:41:00,56.8,51.0,29.84,SW,234,0.0,2.0,81,0.00,,---,0.00,VWS V14.01,2013-03-17 09:41:00,
2013-03-17 04:44:00,56.7,50.9,29.84,SW,233,0.0,2.0,81,0.00,,---,0.00,VWS V14.01,2013-03-17 09:44:00,
2013-03-17 04:46:00,56.7,50.9,29.84,SW,233,0.0,0.0,81,0.00,,---,0.00,VWS V14.01,2013-03-17 09:46:00,
2013-03-17 04:49:00,56.6,51.2,29.84,SW,233,1.0,1.0,82,0.00,,---,0.00,VWS V14.01,2013-03-17 09:49:00,
2013-03-17 04:51:00,56.7,51.3,29.84,SW,226,2.0,2.0,82,0.00,,---,0.00,VWS V14.01,2013-03-17 09:51:00,
2013-03-17 04:54:00,56.7,51.3,29.84,SW,229,2.0,2.0,82,0.00,,---,0.00,VWS V14.01,2013-03-17 09:54:00,
2013-03-17 04:56:00,56.8,51.4,29.84,SW,217,3.0,3.0,82,0.00,,---,0.00,VWS V14.01,2013-03-17 09:56:00,
2013-03-17 04:59:00,56.8,51.4,29.84,SW,220,2.0,3.0,82,0.00,,---,0.00,VWS V14.01,2013-03-17 09:59:00,
2013-03-17 05:01:00,56.8,51.4,29.84,SSW,210,3.0,4.0,82,0.00,,---,0.00,VWS V14.01,2013-03-17 10:01:00,
2013-03-17 05:04:00,56.9,51.5,29.84,SW,233,2.0,5.0,82,0.00,,---,0.00,VWS V14.01,2013-03-17 10:04:00,
2013-03-17 05:06:00,57.0,51.6,29.84,SW,216,2.0,5.0,82,0.00,,---,0.00,VWS V14.01,2013-03-17 10:06:00,
2013-03-17 05:09:00,57.1,51.3,29.84,SW,235,2.0,5.0,81,0.00,,---,0.00,VWS V14.01,2013-03-17 10:09:00,
2013-03-17 05:12:00,57.1,51.3,29.84,SW,232,1.0,5.0,81,0.00,,---,0.00,VWS V14.01,2013-03-17 10:12:00,
2013-03-17 05:14:00,57.1,51.3,29.85,SW,221,1.0,5.0,81,0.00,,---,0.00,VWS V14.01,2013-03-17 10:14:00,
2013-03-17 05:15:00,57.1,51.3,29.85,SW,221,1.0,5.0,81,0.00,,---,0.00,VWS V14.01,2013-03-17 10:15:00,
2013-03-17 05:17:00,57.1,51.3,29.85,WSW,240,2.0,3.0,81,0.00,,---,0.00,VWS V14.01,2013-03-17 10:17:00,
2013-03-17 05:19:00,57.2,51.4,29.85,WSW,240,1.0,3.0,81,0.00,,---,0.00,VWS V14.01,2013-03-17 10:19:00,
2013-03-17 05:20:00,57.1,51.3,29.85,WSW,240,1.0,3.0,81,0.00,,---,0.00,VWS V14.01,2013-03-17 10:20:00,
2013-03-17 05:23:00,57.2,51.8,29.85,WSW,240,1.0,4.0,82,0.00,,---,0.00,VWS V14.01,2013-03-17 10:23:00,
2013-03-17 05:25:00,57.2,51.8,29.85,WSW,247,2.0,4.0,82,0.00,,---,0.00,VWS V14.01,2013-03-17 10:25:00,
2013-03-17 05:28:00,57.3,51.9,29.85,WSW,240,3.0,4.0,82,0.00,,---,0.00,VWS V14.01,2013-03-17 10:28:00,
2013-03-17 05:30:00,57.4,52.0,29.85,SW,217,3.0,4.0,82,0.00,,---,0.00,VWS V14.01,2013-03-17 10:30:00,
2013-03-17 05:33:00,57.5,52.1,29.85,SW,218,2.0,5.0,82,0.00,,---,0.00,VWS V14.01,2013-03-17 10:33:00,
2013-03-17 05:35:00,57.6,52.2,29.85,SW,231,2.0,5.0,82,0.00,,---,0.00,VWS V14.01,2013-03-17 10:35:00,
2013-03-17 05:38:00,57.8,52.3,29.85,SW,234,4.0,6.0,82,0.00,,---,0.00,VWS V14.01,2013-03-17 10:38:00,
2013-03-17 05:40:00,57.9,52.5,29.85,SW,233,2.0,6.0,82,0.00,,---,0.00,VWS V14.01,2013-03-17 10:40:00,
2013-03-17 05:43:00,58.0,52.2,29.85,WSW,243,3.0,6.0,81,0.00,,---,0.00,VWS V14.01,2013-03-17 10:43:00,
2013-03-17 05:45:00,58.1,52.3,29.85,WSW,240,3.0,6.0,81,0.00,,---,0.00,VWS V14.01,2013-03-17 10:45:00,
2013-03-17 05:48:00,58.2,52.4,29.85,WSW,238,3.0,5.0,81,0.00,,---,0.00,VWS V14.01,2013-03-17 10:48:00,
2013-03-17 05:50:00,58.3,52.5,29.85,WSW,238,2.0,5.0,81,0.00,,---,0.00,VWS V14.01,2013-03-17 10:50:00,
2013-03-17 05:51:00,58.3,52.5,29.85,SW,218,2.0,5.0,81,0.00,,---,0.00,VWS V14.01,2013-03-17 10:51:00,
2013-03-17 05:53:00,58.3,52.5,29.85,WSW,245,4.0,6.0,81,0.00,,---,0.00,VWS V14.01,2013-03-17 10:53:00,
2013-03-17 05:56:00,58.4,52.6,29.85,WSW,239,3.0,3.0,81,0.00,,---,0.00,VWS V14.01,2013-03-17 10:56:00,
2013-03-17 05:58:00,58.4,52.6,29.85,WSW,242,2.0,5.0,81,0.00,,---,0.00,VWS V14.01,2013-03-17 10:58:00,
2013-03-17 06:01:00,58.5,52.7,29.85,WSW,238,2.0,3.0,81,0.00,,---,0.00,VWS V14.01,2013-03-17 11:01:00,
2013-03-17 06:03:00,58.5,53.0,29.85,WSW,240,3.0,6.0,82,0.00,,---,0.00,VWS V14.01,2013-03-17 11:03:00,
2013-03-17 06:06:00,58.5,53.0,29.85,WSW,240,3.0,6.0,82,0.00,,---,0.00,VWS V14.01,2013-03-17 11:06:00,
2013-03-17 06:08:00,58.5,53.0,29.85,WSW,250,1.0,6.0,82,0.00,,---,0.00,VWS V14.01,2013-03-17 11:08:00,
2013-03-17 06:11:00,58.5,53.0,29.85,WNW,292,0.0,6.0,82,0.00,,---,0.00,VWS V14.01,2013-03-17 11:11:00,
2013-03-17 06:13:00,58.5,53.0,29.85,WSW,247,1.0,6.0,82,0.00,,---,0.00,VWS V14.01,2013-03-17 11:13:00,
2013-03-17 06:16:00,58.4,52.9,29.86,West,272,1.0,4.0,82,0.00,,---,0.00,VWS V14.01,2013-03-17 11:16:00,
2013-03-17 06:18:00,58.4,52.9,29.86,West,264,1.0,4.0,82,0.00,,---,0.00,VWS V14.01,2013-03-17 11:18:00,
2013-03-17 06:21:00,58.4,53.3,29.85,SW,226,3.0,4.0,83,0.00,,---,0.00,VWS V14.01,2013-03-17 11:21:00,
2013-03-17 06:22:00,58.4,53.3,29.85,West,266,2.0,4.0,83,0.00,,---,0.00,VWS V14.01,2013-03-17 11:22:00,
2013-03-17 06:23:00,58.5,53.4,29.86,West,270,2.0,4.0,83,0.00,,---,0.00,VWS V14.01,2013-03-17 11:23:00,
2013-03-17 06:26:00,58.5,53.4,29.86,WNW,295,1.0,4.0,83,0.00,,---,0.00,VWS V14.01,2013-03-17 11:26:00,
2013-03-17 06:27:00,58.4,53.3,29.86,West,271,2.0,5.0,83,0.00,,---,0.00,VWS V14.01,2013-03-17 11:27:00,
2013-03-17 06:28:00,58.5,53.4,29.86,West,263,0.0,5.0,83,0.00,,---,0.00,VWS V14.01,2013-03-17 11:28:00,
2013-03-17 06:32:00,58.4,53.3,29.86,West,272,0.0,2.0,83,0.00,,---,0.00,VWS V14.01,2013-03-17 11:32:00,
2013-03-17 06:33:00,58.3,53.2,29.86,West,273,1.0,2.0,83,0.00,,---,0.00,VWS V14.01,2013-03-17 11:33:00,
2013-03-17 06:37:00,58.4,53.3,29.86,WSW,256,1.0,4.0,83,0.00,,---,0.00,VWS V14.01,2013-03-17 11:37:00,
2013-03-17 06:38:00,58.4,53.6,29.86,SW,232,2.0,4.0,84,0.00,,---,0.00,VWS V14.01,2013-03-17 11:38:00,
2013-03-17 06:42:00,58.5,53.7,29.86,West,280,3.0,4.0,84,0.00,,---,0.00,VWS V14.01,2013-03-17 11:42:00,
2013-03-17 06:43:00,58.5,53.7,29.86,WSW,255,2.0,4.0,84,0.00,,---,0.00,VWS V14.01,2013-03-17 11:43:00,
2013-03-17 06:44:00,58.5,53.7,29.86,West,270,3.0,4.0,84,0.00,,---,0.00,VWS V14.01,2013-03-17 11:44:00,
2013-03-17 06:47:00,58.6,53.8,29.86,WSW,258,2.0,4.0,84,0.00,,---,0.00,VWS V14.01,2013-03-17 11:47:00,
2013-03-17 06:48:00,58.7,53.9,29.86,SW,231,3.0,4.0,84,0.00,,---,0.00,VWS V14.01,2013-03-17 11:48:00,
2013-03-17 06:49:00,58.7,53.9,29.86,WSW,245,2.0,5.0,84,0.00,,---,0.00,VWS V14.01,2013-03-17 11:49:00,
2013-03-17 06:52:00,58.7,53.9,29.86,SW,230,3.0,8.0,84,0.00,,---,0.00,VWS V14.01,2013-03-17 11:52:00,
2013-03-17 06:53:00,58.8,54.0,29.86,WSW,238,3.0,8.0,84,0.00,,---,0.00,VWS V14.01,2013-03-17 11:53:00,
2013-03-17 06:54:00,58.8,54.0,29.86,West,259,2.0,8.0,84,0.00,,---,0.00,VWS V14.01,2013-03-17 11:54:00,
2013-03-17 06:57:00,58.8,54.0,29.86,WSW,238,2.0,8.0,84,0.00,,---,0.00,VWS V14.01,2013-03-17 11:57:00,
2013-03-17 06:58:00,58.9,54.1,29.86,WSW,255,1.0,8.0,84,0.00,,---,0.00,VWS V14.01,2013-03-17 11:58:00,
2013-03-17 06:59:00,58.9,53.8,29.86,WSW,254,2.0,8.0,83,0.00,,---,0.00,VWS V14.01,2013-03-17 11:59:00,
2013-03-17 07:02:00,58.8,54.0,29.86,WSW,247,2.0,2.0,84,0.00,,---,0.00,VWS V14.01,2013-03-17 12:02:00,
2013-03-17 07:03:00,58.8,54.0,29.86,WSW,258,2.0,3.0,84,0.00,,---,0.00,VWS V14.01,2013-03-17 12:03:00,
2013-03-17 07:04:00,58.8,54.0,29.86,WSW,258,0.0,3.0,84,0.00,,---,0.00,VWS V14.01,2013-03-17 12:04:00,
2013-03-17 07:07:00,58.9,54.1,29.86,WSW,258,1.0,5.0,84,0.00,,---,0.00,VWS V14.01,2013-03-17 12:07:00,
2013-03-17 07:08:00,58.9,54.1,29.86,SW,228,4.0,5.0,84,0.00,,---,0.00,VWS V14.01,2013-03-17 12:08:00,
2013-03-17 07:09:00,58.9,54.1,29.86,WSW,257,2.0,5.0,84,0.00,,---,0.00,VWS V14.01,2013-03-17 12:09:00,
2013-03-17 07:12:00,58.9,54.1,29.86,WSW,247,1.0,5.0,84,0.00,,---,0.00,VWS V14.01,2013-03-17 12:12:00,
2013-03-17 07:14:00,58.9,54.1,29.86,WSW,242,0.0,5.0,84,0.00,,---,0.00,VWS V14.01,2013-03-17 12:14:00,
2013-03-17 07:17:00,58.8,54.0,29.87,WSW,245,0.0,3.0,84,0.00,,---,0.00,VWS V14.01,2013-03-17 12:17:00,
2013-03-17 07:19:00,58.8,54.0,29.86,WSW,243,1.0,4.0,84,0.00,,---,0.00,VWS V14.01,2013-03-17 12:19:00,
2013-03-17 07:22:00,58.8,54.0,29.86,West,262,0.0,4.0,84,0.00,,---,0.00,VWS V14.01,2013-03-17 12:22:00,
2013-03-17 07:24:00,58.8,54.0,29.87,WSW,256,0.0,4.0,84,0.00,,---,0.00,VWS V14.01,2013-03-17 12:24:00,
2013-03-17 07:27:00,58.8,54.0,29.87,WSW,248,0.0,4.0,84,0.00,,---,0.00,VWS V14.01,2013-03-17 12:27:00,
2013-03-17 07:29:00,58.9,54.1,29.87,WSW,250,0.0,4.0,84,0.00,,---,0.00,VWS V14.01,2013-03-17 12:29:00,
2013-03-17 07:32:00,59.0,54.5,29.87,West,266,1.0,1.0,85,0.00,,---,0.00,VWS V14.01,2013-03-17 12:32:00,
2013-03-17 07:34:00,59.0,54.5,29.87,West,276,3.0,3.0,85,0.00,,---,0.00,VWS V14.01,2013-03-17 12:34:00,
2013-03-17 07:37:00,59.1,54.3,29.88,West,278,2.0,3.0,84,0.00,,---,0.00,VWS V14.01,2013-03-17 12:37:00,
2013-03-17 07:39:00,59.2,54.4,29.88,WNW,292,1.0,4.0,84,0.00,,---,0.00,VWS V14.01,2013-03-17 12:39:00,
2013-03-17 07:43:00,59.2,54.4,29.88,WNW,291,0.0,4.0,84,0.00,,---,0.00,VWS V14.01,2013-03-17 12:43:00,
2013-03-17 07:44:00,59.2,54.4,29.88,WNW,291,0.0,4.0,84,0.00,,---,0.00,VWS V14.01,2013-03-17 12:44:00,
2013-03-17 07:48:00,59.1,54.3,29.88,WNW,291,0.0,0.0,84,0.00,,---,0.00,VWS V14.01,2013-03-17 12:48:00,
2013-03-17 07:49:00,59.1,54.3,29.88,WNW,292,0.0,0.0,84,0.00,,---,0.00,VWS V14.01,2013-03-17 12:49:00,
2013-03-17 07:50:00,59.1,54.3,29.88,WNW,291,1.0,1.0,84,0.00,,---,0.00,VWS V14.01,2013-03-17 12:50:00,
2013-03-17 07:53:00,59.1,54.3,29.88,West,278,2.0,3.0,84,0.00,,---,0.00,VWS V14.01,2013-03-17 12:53:00,
2013-03-17 07:54:00,59.1,54.3,29.88,West,276,1.0,3.0,84,0.00,,---,0.00,VWS V14.01,2013-03-17 12:54:00,
2013-03-17 07:55:00,59.1,54.3,29.88,West,276,0.0,3.0,84,0.00,,---,0.00,VWS V14.01,2013-03-17 12:55:00,
2013-03-17 07:59:00,59.0,54.2,29.88,West,281,0.0,3.0,84,0.00,,---,0.00,VWS V14.01,2013-03-17 12:59:00,
2013-03-17 08:00:00,59.0,54.2,29.88,West,281,0.0,3.0,84,0.00,,---,0.00,VWS V14.01,2013-03-17 13:00:00,
2013-03-17 08:04:00,58.9,54.1,29.88,WNW,282,0.0,2.0,84,0.00,,---,0.00,VWS V14.01,2013-03-17 13:04:00,
2013-03-17 08:05:00,58.9,54.1,29.88,West,281,0.0,2.0,84,0.00,,---,0.00,VWS V14.01,2013-03-17 13:05:00,
2013-03-17 08:09:00,58.8,54.0,29.88,West,281,1.0,2.0,84,0.00,,---,0.00,VWS V14.01,2013-03-17 13:09:00,
2013-03-17 08:10:00,58.8,54.0,29.88,WNW,282,1.0,2.0,84,0.00,,---,0.00,VWS V14.01,2013-03-17 13:10:00,
2013-03-17 08:14:00,58.7,53.6,29.88,WNW,282,0.0,2.0,83,0.00,,---,0.00,VWS V14.01,2013-03-17 13:14:00,
2013-03-17 08:15:00,58.7,53.6,29.88,West,281,0.0,2.0,83,0.00,,---,0.00,VWS V14.01,2013-03-17 13:15:00,
2013-03-17 08:16:00,58.7,53.6,29.88,WNW,282,0.0,0.0,83,0.00,,---,0.00,VWS V14.01,2013-03-17 13:16:00,
2013-03-17 08:19:00,58.6,53.5,29.88,West,281,0.0,1.0,83,0.00,,---,0.00,VWS V14.01,2013-03-17 13:19:00,
2013-03-17 08:20:00,58.6,53.5,29.88,WNW,282,0.0,1.0,83,0.00,,---,0.00,VWS V14.01,2013-03-17 13:20:00,
2013-03-17 08:21:00,58.6,53.5,29.88,West,281,1.0,1.0,83,0.00,,---,0.00,VWS V14.01,2013-03-17 13:21:00,
2013-03-17 08:24:00,58.6,53.5,29.88,West,281,0.0,1.0,83,0.00,,---,0.00,VWS V14.01,2013-03-17 13:24:00,
2013-03-17 08:25:00,58.6,53.8,29.88,West,281,0.0,1.0,84,0.00,,---,0.00,VWS V14.01,2013-03-17 13:25:00,
2013-03-17 08:26:00,58.6,53.8,29.88,West,281,0.0,1.0,84,0.00,,---,0.00,VWS V14.01,2013-03-17 13:26:00,
2013-03-17 08:29:00,58.5,53.4,29.88,West,281,0.0,1.0,83,0.00,,---,0.00,VWS V14.01,2013-03-17 13:29:00,
2013-03-17 08:30:00,58.5,53.4,29.88,West,281,0.0,1.0,83,0.00,,---,0.00,VWS V14.01,2013-03-17 13:30:00,
2013-03-17 08:32:00,58.4,53.3,29.88,West,281,0.0,0.0,83,0.00,,---,0.00,VWS V14.01,2013-03-17 13:32:00,
2013-03-17 08:34:00,58.3,52.8,29.88,NNW,330,1.0,2.0,82,0.00,,---,0.00,VWS V14.01,2013-03-17 13:34:00,
2013-03-17 08:35:00,58.2,52.4,29.88,NNW,330,1.0,2.0,81,0.00,,---,0.00,VWS V14.01,2013-03-17 13:35:00,
2013-03-17 08:37:00,58.0,52.2,29.88,NNW,339,0.0,2.0,81,0.00,,---,0.00,VWS V14.01,2013-03-17 13:37:00,
2013-03-17 08:39:00,57.6,51.5,29.88,NNW,340,1.0,2.0,80,0.00,,---,0.00,VWS V14.01,2013-03-17 13:39:00,
2013-03-17 08:40:00,57.5,51.7,29.88,NNW,342,1.0,2.0,81,0.00,,---,0.00,VWS V14.01,2013-03-17 13:40:00,
2013-03-17 08:41:00,57.4,51.3,29.88,NNW,342,0.0,2.0,80,0.00,,---,0.00,VWS V14.01,2013-03-17 13:41:00,
2013-03-17 08:42:00,57.2,51.4,29.88,NNW,342,1.0,2.0,81,0.00,,---,0.00,VWS V14.01,2013-03-17 13:42:00,
2013-03-17 08:44:00,57.1,51.7,29.88,NNW,342,0.0,2.0,82,0.00,,---,0.00,VWS V14.01,2013-03-17 13:44:00,
2013-03-17 08:45:00,57.0,51.6,29.88,NNW,342,0.0,2.0,82,0.00,,---,0.00,VWS V14.01,2013-03-17 13:45:00,
2013-03-17 08:46:00,57.0,51.6,29.88,NNW,342,0.0,0.0,82,0.00,,---,0.00,VWS V14.01,2013-03-17 13:46:00,
2013-03-17 08:47:00,56.9,51.5,29.88,NNW,342,0.0,0.0,82,0.00,,---,0.00,VWS V14.01,2013-03-17 13:47:00,
2013-03-17 08:49:00,56.8,51.4,29.88,NNW,342,0.0,1.0,82,0.00,,---,0.00,VWS V14.01,2013-03-17 13:49:00,
2013-03-17 08:50:00,56.8,51.4,29.88,NNW,342,0.0,1.0,82,0.00,,---,0.00,VWS V14.01,2013-03-17 13:50:00,
2013-03-17 08:51:00,56.8,51.4,29.88,NNW,342,0.0,1.0,82,0.00,,---,0.00,VWS V14.01,2013-03-17 13:51:00,
2013-03-17 08:52:00,56.8,51.4,29.88,NNW,342,1.0,1.0,82,0.00,,---,0.00,VWS V14.01,2013-03-17 13:52:00,
2013-03-17 08:54:00,56.8,51.7,29.88,NNW,342,0.0,1.0,83,0.00,,---,0.00,VWS V14.01,2013-03-17 13:54:00,
2013-03-17 08:55:00,56.7,51.6,29.88,NNW,342,0.0,1.0,83,0.00,,---,0.00,VWS V14.01,2013-03-17 13:55:00,
2013-03-17 08:57:00,56.7,51.3,29.88,North,356,1.0,2.0,82,0.00,,---,0.00,VWS V14.01,2013-03-17 13:57:00,
2013-03-17 08:59:00,56.6,51.2,29.88,East,84,2.0,3.0,82,0.00,,---,0.00,VWS V14.01,2013-03-17 13:59:00,
2013-03-17 09:01:00,56.4,51.0,29.88,East,83,0.0,2.0,82,0.00,,---,0.00,VWS V14.01,2013-03-17 14:01:00,
2013-03-17 09:02:00,56.4,51.0,29.88,East,83,0.0,2.0,82,0.00,,---,0.00,VWS V14.01,2013-03-17 14:02:00,
2013-03-17 09:04:00,56.3,51.2,29.89,East,82,1.0,2.0,83,0.00,,---,0.00,VWS V14.01,2013-03-17 14:04:00,
2013-03-17 09:06:00,56.3,51.2,29.89,East,82,1.0,2.0,83,0.00,,---,0.00,VWS V14.01,2013-03-17 14:06:00,
2013-03-17 09:07:00,56.2,51.1,29.89,East,82,0.0,2.0,83,0.00,,---,0.00,VWS V14.01,2013-03-17 14:07:00,
2013-03-17 09:10:00,56.2,51.1,29.88,East,82,1.0,2.0,83,0.00,,---,0.00,VWS V14.01,2013-03-17 14:10:00,
2013-03-17 09:11:00,56.3,51.5,29.88,ESE,113,1.0,2.0,84,0.00,,---,0.00,VWS V14.01,2013-03-17 14:11:00,
2013-03-17 09:12:00,56.3,51.5,29.88,ESE,121,1.0,2.0,84,0.00,,---,0.00,VWS V14.01,2013-03-17 14:12:00,
2013-03-17 09:15:00,56.3,51.5,29.88,ESE,122,0.0,2.0,84,0.00,,---,0.00,VWS V14.01,2013-03-17 14:15:00,
2013-03-17 09:17:00,56.3,51.5,29.88,ESE,120,1.0,1.0,84,0.00,,---,0.00,VWS V14.01,2013-03-17 14:17:00,
2013-03-17 09:20:00,56.4,51.6,29.88,ESE,121,0.0,2.0,84,0.00,,---,0.00,VWS V14.01,2013-03-17 14:20:00,
2013-03-17 09:22:00,56.5,51.7,29.88,ESE,121,0.0,2.0,84,0.00,,---,0.00,VWS V14.01,2013-03-17 14:22:00,
2013-03-17 09:25:00,56.6,51.8,29.88,ESE,121,0.0,2.0,84,0.00,,---,0.00,VWS V14.01,2013-03-17 14:25:00,
2013-03-17 09:27:00,56.6,51.8,29.88,ESE,121,0.0,2.0,84,0.00,,---,0.00,VWS V14.01,2013-03-17 14:27:00,
2013-03-17 09:28:00,56.6,51.8,29.88,ESE,120,0.0,2.0,84,0.00,,---,0.00,VWS V14.01,2013-03-17 14:28:00,
2013-03-17 09:30:00,56.7,51.9,29.88,ESE,121,0.0,2.0,84,0.00,,---,0.00,VWS V14.01,2013-03-17 14:30:00,
2013-03-17 09:32:00,56.8,52.0,29.88,ESE,121,0.0,1.0,84,0.00,,---,0.00,VWS V14.01,2013-03-17 14:32:00,
2013-03-17 09:33:00,56.8,52.0,29.88,ESE,121,1.0,1.0,84,0.00,,---,0.00,VWS V14.01,2013-03-17 14:33:00,
2013-03-17 09:35:00,56.8,51.7,29.88,NNW,346,1.0,3.0,83,0.00,,---,0.00,VWS V14.01,2013-03-17 14:35:00,
2013-03-17 09:37:00,56.7,51.3,29.89,North,353,2.0,3.0,82,0.00,,---,0.00,VWS V14.01,2013-03-17 14:37:00,
2013-03-17 09:38:00,56.7,51.6,29.89,NNW,346,1.0,3.0,83,0.00,,---,0.00,VWS V14.01,2013-03-17 14:38:00,
2013-03-17 09:40:00,56.5,51.1,29.88,NNE,17,0.0,3.0,82,0.00,,---,0.00,VWS V14.01,2013-03-17 14:40:00,
2013-03-17 09:42:00,56.3,50.9,29.88,East,86,0.0,3.0,82,0.00,,---,0.00,VWS V14.01,2013-03-17 14:42:00,
2013-03-17 09:43:00,56.3,51.2,29.88,East,84,0.0,3.0,83,0.00,,---,0.00,VWS V14.01,2013-03-17 14:43:00,
2013-03-17 09:46:00,56.1,51.0,29.89,East,87,0.0,0.0,83,0.00,,---,0.00,VWS V14.01,2013-03-17 14:46:00,
2013-03-17 09:47:00,56.1,51.0,29.89,East,87,0.0,1.0,83,0.00,,---,0.00,VWS V14.01,2013-03-17 14:47:00,
2013-03-17 09:48:00,56.1,51.0,29.89,East,87,0.0,1.0,83,0.00,,---,0.00,VWS V14.01,2013-03-17 14:48:00,
2013-03-17 09:51:00,56.0,50.9,29.89,East,91,0.0,2.0,83,0.00,,---,0.00,VWS V14.01,2013-03-17 14:51:00,
2013-03-17 09:53:00,55.9,50.8,29.89,East,91,1.0,2.0,83,0.00,,---,0.00,VWS V14.01,2013-03-17 14:53:00,
2013-03-17 09:54:00,55.9,50.8,29.89,East,91,0.0,2.0,83,0.00,,---,0.00,VWS V14.01,2013-03-17 14:54:00,
2013-03-17 09:56:00,55.8,51.0,29.89,East,91,0.0,2.0,84,0.00,,---,0.00,VWS V14.01,2013-03-17 14:56:00,
2013-03-17 09:58:00,55.8,51.0,29.89,East,91,0.0,2.0,84,0.00,,---,0.00,VWS V14.01,2013-03-17 14:58:00,
2013-03-17 09:59:00,55.9,51.1,29.89,East,91,0.0,2.0,84,0.00,,---,0.00,VWS V14.01,2013-03-17 14:59:00,
2013-03-17 10:01:00,55.9,51.5,29.89,East,91,0.0,0.0,85,0.00,,---,0.00,VWS V14.01,2013-03-17 15:01:00,
2013-03-17 10:03:00,56.0,51.6,29.89,East,91,1.0,1.0,85,0.00,,---,0.00,VWS V14.01,2013-03-17 15:03:00,
2013-03-17 10:04:00,56.0,51.6,29.89,East,91,0.0,1.0,85,0.00,,---,0.00,VWS V14.01,2013-03-17 15:04:00,
2013-03-17 10:06:00,56.1,51.3,29.89,NNE,14,2.0,3.0,84,0.00,,---,0.00,VWS V14.01,2013-03-17 15:06:00,
2013-03-17 10:08:00,55.9,50.8,29.89,NNE,15,3.0,4.0,83,0.00,,---,0.00,VWS V14.01,2013-03-17 15:08:00,
2013-03-17 10:09:00,55.9,50.8,29.89,North,8,2.0,4.0,83,0.00,,---,0.00,VWS V14.01,2013-03-17 15:09:00,
2013-03-17 10:11:00,55.6,50.5,29.89,NNW,333,1.0,4.0,83,0.00,,---,0.00,VWS V14.01,2013-03-17 15:11:00,
2013-03-17 10:13:00,55.5,50.4,29.89,North,6,1.0,4.0,83,0.00,,---,0.00,VWS V14.01,2013-03-17 15:13:00,
2013-03-17 10:14:00,55.4,50.3,29.89,North,352,2.0,4.0,83,0.00,,---,0.00,VWS V14.01,2013-03-17 15:14:00,
2013-03-17 10:16:00,55.3,50.2,29.89,NNE,17,1.0,2.0,83,0.00,,---,0.00,VWS V14.01,2013-03-17 15:16:00,
2013-03-17 10:18:00,55.2,50.5,29.89,NNE,21,4.0,4.0,84,0.00,,---,0.00,VWS V14.01,2013-03-17 15:18:00,
2013-03-17 10:19:00,55.2,50.5,29.89,NNE,13,1.0,4.0,84,0.00,,---,0.00,VWS V14.01,2013-03-17 15:19:00,
2013-03-17 10:21:00,55.1,50.4,29.89,North,352,1.0,4.0,84,0.00,,---,0.00,VWS V14.01,2013-03-17 15:21:00,
2013-03-17 10:23:00,55.0,50.3,29.89,North,352,1.0,4.0,84,0.00,,---,0.00,VWS V14.01,2013-03-17 15:23:00,
2013-03-17 10:24:00,55.0,50.3,29.89,North,351,2.0,4.0,84,0.00,,---,0.00,VWS V14.01,2013-03-17 15:24:00,
2013-03-17 10:27:00,54.8,49.7,29.89,NNE,31,2.0,4.0,83,0.00,,---,0.00,VWS V14.01,2013-03-17 15:27:00,
2013-03-17 10:28:00,54.7,50.0,29.89,NNE,20,2.0,4.0,84,0.00,,---,0.00,VWS V14.01,2013-03-17 15:28:00,
2013-03-17 10:29:00,54.6,49.9,29.89,East,82,2.0,5.0,84,0.00,,---,0.00,VWS V14.01,2013-03-17 15:29:00,
2013-03-17 10:32:00,54.4,49.7,29.89,North,359,1.0,3.0,84,0.00,,---,0.00,VWS V14.01,2013-03-17 15:32:00,
2013-03-17 10:33:00,54.3,49.6,29.89,North,8,1.0,4.0,84,0.00,,---,0.00,VWS V14.01,2013-03-17 15:33:00,
2013-03-17 10:34:00,54.3,49.9,29.89,North,8,1.0,4.0,85,0.00,,---,0.00,VWS V14.01,2013-03-17 15:34:00,
2013-03-17 10:37:00,54.2,49.8,29.89,NNE,14,3.0,4.0,85,0.00,,---,0.00,VWS V14.01,2013-03-17 15:37:00,
2013-03-17 10:38:00,54.2,49.8,29.89,North,4,1.0,4.0,85,0.00,,---,0.00,VWS V14.01,2013-03-17 15:38:00,
2013-03-17 10:39:00,54.1,49.7,29.89,NNW,342,1.0,4.0,85,0.00,,---,0.00,VWS V14.01,2013-03-17 15:39:00,
2013-03-17 10:40:00,54.1,49.7,29.89,NE,45,1.0,4.0,85,0.00,,---,0.00,VWS V14.01,2013-03-17 15:40:00,
2013-03-17 10:42:00,54.1,49.7,29.89,North,8,1.0,4.0,85,0.00,,---,0.00,VWS V14.01,2013-03-17 15:42:00,
2013-03-17 10:43:00,54.1,49.7,29.89,North,357,1.0,4.0,85,0.00,,---,0.00,VWS V14.01,2013-03-17 15:43:00,
2013-03-17 10:44:00,54.1,49.7,29.89,North,356,0.0,4.0,85,0.00,,---,0.00,VWS V14.01,2013-03-17 15:44:00,
2013-03-17 10:45:00,54.1,49.7,29.89,ENE,60,1.0,4.0,85,0.00,,---,0.00,VWS V14.01,2013-03-17 15:45:00,
2013-03-17 10:47:00,54.1,49.7,29.89,ENE,74,1.0,4.0,85,0.00,,---,0.00,VWS V14.01,2013-03-17 15:47:00,
2013-03-17 10:48:00,54.1,49.7,29.89,East,96,1.0,4.0,85,0.00,,---,0.00,VWS V14.01,2013-03-17 15:48:00,
2013-03-17 10:49:00,54.1,50.0,29.89,NNE,18,2.0,4.0,86,0.00,,---,0.00,VWS V14.01,2013-03-17 15:49:00,
2013-03-17 10:50:00,54.1,50.0,29.89,NE,51,1.0,4.0,86,0.00,,---,0.00,VWS V14.01,2013-03-17 15:50:00,
2013-03-17 10:52:00,54.1,50.0,29.89,ENE,65,3.0,4.0,86,0.00,,---,0.00,VWS V14.01,2013-03-17 15:52:00,
2013-03-17 10:53:00,54.1,49.7,29.89,NW,319,2.0,4.0,85,0.00,,---,0.00,VWS V14.01,2013-03-17 15:53:00,
2013-03-17 10:54:00,54.1,50.0,29.89,NW,318,1.0,4.0,86,0.00,,---,0.00,VWS V14.01,2013-03-17 15:54:00,
2013-03-17 10:55:00,54.1,50.0,29.89,NW,318,1.0,4.0,86,0.00,,---,0.00,VWS V14.01,2013-03-17 15:55:00,
2013-03-17 10:57:00,54.2,50.1,29.89,NNW,344,2.0,4.0,86,0.00,,---,0.00,VWS V14.01,2013-03-17 15:57:00,
2013-03-17 10:58:00,54.2,50.1,29.89,NNW,344,1.0,4.0,86,0.00,,---,0.00,VWS V14.01,2013-03-17 15:58:00,
2013-03-17 11:00:00,54.3,50.2,29.89,NNW,344,3.0,4.0,86,0.00,,---,0.00,VWS V14.01,2013-03-17 16:00:00,
2013-03-17 11:02:00,54.4,50.0,29.89,ENE,74,1.0,4.0,85,0.00,,---,0.00,VWS V14.01,2013-03-17 16:02:00,
2013-03-17 11:04:00,54.5,50.4,29.89,NNW,340,1.0,4.0,86,0.00,,---,0.00,VWS V14.01,2013-03-17 16:04:00,
2013-03-17 11:05:00,54.6,50.5,29.89,NNW,342,1.0,4.0,86,0.00,,---,0.00,VWS V14.01,2013-03-17 16:05:00,
2013-03-17 11:08:00,54.8,50.7,29.89,East,80,2.0,4.0,86,0.00,,---,0.00,VWS V14.01,2013-03-17 16:08:00,
2013-03-17 11:09:00,54.9,50.5,29.89,East,80,1.0,4.0,85,0.00,,---,0.00,VWS V14.01,2013-03-17 16:09:00,
2013-03-17 11:10:00,55.0,50.6,29.89,East,90,1.0,4.0,85,0.00,,---,0.00,VWS V14.01,2013-03-17 16:10:00,
2013-03-17 11:13:00,55.3,50.9,29.89,North,350,1.0,4.0,85,0.00,,---,0.00,VWS V14.01,2013-03-17 16:13:00,
2013-03-17 11:14:00,55.5,51.1,29.89,North,350,1.0,4.0,85,0.00,,---,0.00,VWS V14.01,2013-03-17 16:14:00,
2013-03-17 11:15:00,55.7,51.3,29.89,North,350,1.0,4.0,85,0.00,,---,0.00,VWS V14.01,2013-03-17 16:15:00,
2013-03-17 11:18:00,56.2,51.4,29.89,NE,38,2.0,2.0,84,0.00,,---,0.00,VWS V14.01,2013-03-17 16:18:00,
2013-03-17 11:19:00,56.2,51.1,29.89,North,8,1.0,2.0,83,0.00,,---,0.00,VWS V14.01,2013-03-17 16:19:00,
2013-03-17 11:20:00,56.3,51.2,29.89,North,10,2.0,2.0,83,0.00,,---,0.00,VWS V14.01,2013-03-17 16:20:00,
2013-03-17 11:23:00,56.6,51.5,29.88,North,356,1.0,2.0,83,0.00,,---,0.00,VWS V14.01,2013-03-17 16:23:00,
2013-03-17 11:24:00,56.8,51.7,29.89,North,356,0.0,2.0,83,0.00,,---,0.00,VWS V14.01,2013-03-17 16:24:00,
2013-03-17 11:25:00,56.9,51.8,29.88,North,359,2.0,2.0,83,0.00,,---,0.00,VWS V14.01,2013-03-17 16:25:00,
2013-03-17 11:29:00,57.8,52.3,29.89,NNW,330,1.0,2.0,82,0.00,,---,0.00,VWS V14.01,2013-03-17 16:29:00,
2013-03-17 11:30:00,58.1,52.6,29.89,NW,315,1.0,2.0,82,0.00,,---,0.00,VWS V14.01,2013-03-17 16:30:00,
2013-03-17 11:34:00,59.2,53.0,29.88,NW,315,0.0,2.0,80,0.00,,---,0.00,VWS V14.01,2013-03-17 16:34:00,
2013-03-17 11:35:00,59.2,53.0,29.88,NW,315,0.0,2.0,80,0.00,,---,0.00,VWS V14.01,2013-03-17 16:35:00,
2013-03-17 11:39:00,59.8,53.3,29.88,NNW,347,1.0,2.0,79,0.00,,---,0.00,VWS V14.01,2013-03-17 16:39:00,
2013-03-17 11:40:00,59.9,53.7,29.88,NNW,347,1.0,2.0,80,0.00,,---,0.00,VWS V14.01,2013-03-17 16:40:00,
2013-03-17 11:45:00,60.1,53.9,29.88,North,352,0.0,2.0,80,0.00,,---,0.00,VWS V14.01,2013-03-17 16:45:00,
2013-03-17 11:50:00,61.4,54.8,29.88,NW,309,1.0,2.0,79,0.00,,---,0.00,VWS V14.01,2013-03-17 16:50:00,
2013-03-17 11:51:00,61.6,55.4,29.88,NW,309,0.0,2.0,80,0.00,,---,0.00,VWS V14.01,2013-03-17 16:51:00,
2013-03-17 11:55:00,62.6,55.7,29.87,NW,309,0.0,2.0,78,0.00,,---,0.00,VWS V14.01,2013-03-17 16:55:00,
2013-03-17 11:56:00,62.7,55.4,29.87,NW,308,0.0,2.0,77,0.00,,---,0.00,VWS V14.01,2013-03-17 16:56:00,
2013-03-17 12:00:00,63.2,55.5,29.87,WSW,240,0.0,2.0,76,0.00,,---,0.00,VWS V14.01,2013-03-17 17:00:00,
2013-03-17 12:01:00,63.2,55.5,29.87,SW,233,1.0,2.0,76,0.00,,---,0.00,VWS V14.01,2013-03-17 17:01:00,
2013-03-17 12:05:00,63.7,55.6,29.87,SW,233,1.0,3.0,75,0.00,,---,0.00,VWS V14.01,2013-03-17 17:05:00,
2013-03-17 12:06:00,63.8,55.7,29.87,SW,233,0.0,3.0,75,0.00,,---,0.00,VWS V14.01,2013-03-17 17:06:00,
2013-03-17 12:07:00,64.0,55.9,29.86,SW,235,1.0,3.0,75,0.00,,---,0.00,VWS V14.01,2013-03-17 17:07:00,
2013-03-17 12:10:00,64.8,56.7,29.87,NW,305,1.0,3.0,75,0.00,,---,0.00,VWS V14.01,2013-03-17 17:10:00,
2013-03-17 12:11:00,65.0,56.9,29.87,NW,305,1.0,3.0,75,0.00,,---,0.00,VWS V14.01,2013-03-17 17:11:00,
2013-03-17 12:12:00,65.2,57.1,29.86,NW,305,0.0,3.0,75,0.00,,---,0.00,VWS V14.01,2013-03-17 17:12:00,
2013-03-17 12:15:00,65.8,57.3,29.86,NW,305,1.0,3.0,74,0.00,,---,0.00,VWS V14.01,2013-03-17 17:15:00,
2013-03-17 12:16:00,65.9,56.6,29.86,WNW,297,1.0,4.0,72,0.00,,---,0.00,VWS V14.01,2013-03-17 17:16:00,
2013-03-17 12:17:00,65.9,56.6,29.86,WNW,297,0.0,4.0,72,0.00,,---,0.00,VWS V14.01,2013-03-17 17:17:00,
2013-03-17 12:20:00,66.0,57.1,29.86,WNW,286,2.0,5.0,73,0.00,,---,0.00,VWS V14.01,2013-03-17 17:20:00,
2013-03-17 12:21:00,66.1,57.2,29.86,WNW,287,0.0,5.0,73,0.00,,---,0.00,VWS V14.01,2013-03-17 17:21:00,
2013-03-17 12:22:00,66.2,57.3,29.86,WNW,287,1.0,5.0,73,0.00,,---,0.00,VWS V14.01,2013-03-17 17:22:00,
2013-03-17 12:25:00,66.7,57.0,29.86,NW,304,1.0,5.0,71,0.00,,---,0.00,VWS V14.01,2013-03-17 17:25:00,
2013-03-17 12:26:00,66.8,57.1,29.86,NW,304,2.0,5.0,71,0.00,,---,0.00,VWS V14.01,2013-03-17 17:26:00,
2013-03-17 12:27:00,66.9,56.8,29.86,WNW,291,2.0,5.0,70,0.00,,---,0.00,VWS V14.01,2013-03-17 17:27:00,
2013-03-17 12:30:00,66.7,56.6,29.85,West,259,1.0,1.0,70,0.00,,---,0.00,VWS V14.01,2013-03-17 17:30:00,
2013-03-17 12:31:00,66.6,56.9,29.85,WNW,282,2.0,2.0,71,0.00,,---,0.00,VWS V14.01,2013-03-17 17:31:00,
2013-03-17 12:32:00,66.5,56.8,29.85,West,267,3.0,3.0,71,0.00,,---,0.00,VWS V14.01,2013-03-17 17:32:00,
2013-03-17 12:35:00,66.4,57.1,29.85,West,264,1.0,3.0,72,0.00,,---,0.00,VWS V14.01,2013-03-17 17:35:00,
2013-03-17 12:36:00,66.6,56.9,29.85,SW,224,2.0,3.0,71,0.00,,---,0.00,VWS V14.01,2013-03-17 17:36:00,
2013-03-17 12:37:00,66.7,57.0,29.85,SW,225,0.0,3.0,71,0.00,,---,0.00,VWS V14.01,2013-03-17 17:37:00,
2013-03-17 12:38:00,66.8,57.1,29.85,SW,226,0.0,3.0,71,0.00,,---,0.00,VWS V14.01,2013-03-17 17:38:00,
2013-03-17 12:40:00,67.6,57.5,29.85,West,269,1.0,3.0,70,0.00,,---,0.00,VWS V14.01,2013-03-17 17:40:00,
2013-03-17 12:42:00,67.9,57.8,29.85,WSW,255,2.0,3.0,70,0.00,,---,0.00,VWS V14.01,2013-03-17 17:42:00,
2013-03-17 12:43:00,68.1,57.6,29.85,SW,214,4.0,4.0,69,0.00,,---,0.00,VWS V14.01,2013-03-17 17:43:00,
2013-03-17 12:46:00,68.4,57.4,29.85,WNW,283,8.0,8.0,68,0.00,,---,0.00,VWS V14.01,2013-03-17 17:46:00,
2013-03-17 12:47:00,68.3,57.3,29.85,WNW,288,6.0,9.0,68,0.00,,---,0.00,VWS V14.01,2013-03-17 17:47:00,
2013-03-17 12:48:00,68.2,57.2,29.85,WSW,244,4.0,9.0,68,0.00,,---,0.00,VWS V14.01,2013-03-17 17:48:00,
2013-03-17 12:51:00,68.0,57.1,29.85,SW,230,3.0,9.0,68,0.00,,---,0.00,VWS V14.01,2013-03-17 17:51:00,
2013-03-17 12:52:00,68.0,57.1,29.85,SW,235,2.0,9.0,68,0.00,,---,0.00,VWS V14.01,2013-03-17 17:52:00,
2013-03-17 12:53:00,68.0,57.1,29.84,WSW,240,2.0,9.0,68,0.00,,---,0.00,VWS V14.01,2013-03-17 17:53:00,
2013-03-17 12:56:00,68.2,57.2,29.84,WSW,240,2.0,9.0,68,0.00,,---,0.00,VWS V14.01,2013-03-17 17:56:00,
2013-03-17 12:57:00,68.3,57.3,29.84,SW,231,2.0,9.0,68,0.00,,---,0.00,VWS V14.01,2013-03-17 17:57:00,
2013-03-17 12:58:00,68.4,57.4,29.84,SW,225,2.0,9.0,68,0.00,,---,0.00,VWS V14.01,2013-03-17 17:58:00,
2013-03-17 13:01:00,68.6,57.2,29.84,SW,233,3.0,4.0,67,0.00,,---,0.00,VWS V14.01,2013-03-17 18:01:00,
2013-03-17 13:02:00,68.6,57.2,29.84,SSE,165,4.0,4.0,67,0.00,,---,0.00,VWS V14.01,2013-03-17 18:02:00,
2013-03-17 13:03:00,68.6,57.2,29.84,SW,216,3.0,4.0,67,0.00,,---,0.00,VWS V14.01,2013-03-17 18:03:00,
2013-03-17 13:06:00,68.5,57.1,29.84,WSW,249,4.0,7.0,67,0.00,,---,0.00,VWS V14.01,2013-03-17 18:06:00,
2013-03-17 13:08:00,68.4,57.0,29.83,SSW,205,6.0,7.0,67,0.00,,---,0.00,VWS V14.01,2013-03-17 18:08:00,
2013-03-17 13:12:00,68.1,57.2,29.83,NW,318,4.0,10.0,68,0.00,,---,0.00,VWS V14.01,2013-03-17 18:12:00,
2013-03-17 13:13:00,67.9,56.1,29.83,NNW,328,3.0,10.0,66,0.00,,---,0.00,VWS V14.01,2013-03-17 18:13:00,
2013-03-17 13:17:00,66.1,53.6,29.84,NNW,340,2.0,4.0,64,0.00,,---,0.00,VWS V14.01,2013-03-17 18:17:00,
2013-03-17 13:18:00,65.6,53.1,29.84,NNE,22,4.0,5.0,64,0.00,,---,0.00,VWS V14.01,2013-03-17 18:18:00,
2013-03-17 13:19:00,65.1,52.6,29.84,NNW,335,1.0,5.0,64,0.00,,---,0.00,VWS V14.01,2013-03-17 18:19:00,
2013-03-17 13:22:00,63.8,52.7,29.84,NNW,343,1.0,5.0,67,0.00,,---,0.00,VWS V14.01,2013-03-17 18:22:00,
2013-03-17 13:23:00,63.4,52.7,29.84,NW,310,1.0,5.0,68,0.00,,---,0.00,VWS V14.01,2013-03-17 18:23:00,
2013-03-17 13:24:00,63.3,52.6,29.84,NNW,342,1.0,5.0,68,0.00,,---,0.00,VWS V14.01,2013-03-17 18:24:00,
2013-03-17 13:27:00,62.3,52.0,29.84,NW,326,1.0,5.0,69,0.00,,---,0.00,VWS V14.01,2013-03-17 18:27:00,
2013-03-17 13:28:00,62.0,51.7,29.84,NNE,29,4.0,5.0,69,0.00,,---,0.00,VWS V14.01,2013-03-17 18:28:00,
2013-03-17 13:29:00,62.0,51.7,29.83,NE,56,3.0,6.0,69,0.00,,---,0.00,VWS V14.01,2013-03-17 18:29:00,
2013-03-17 13:32:00,61.3,51.8,29.83,NNE,21,2.0,3.0,71,0.00,,---,0.00,VWS V14.01,2013-03-17 18:32:00,
2013-03-17 13:33:00,61.1,51.6,29.83,North,3,2.0,3.0,71,0.00,,---,0.00,VWS V14.01,2013-03-17 18:33:00,
2013-03-17 13:34:00,61.0,51.5,29.83,North,1,1.0,3.0,71,0.00,,---,0.00,VWS V14.01,2013-03-17 18:34:00,
2013-03-17 13:37:00,60.4,51.0,29.83,North,7,3.0,4.0,71,0.00,,---,0.00,VWS V14.01,2013-03-17 18:37:00,
2013-03-17 13:38:00,60.3,51.2,29.83,North,360,1.0,4.0,72,0.00,,---,0.00,VWS V14.01,2013-03-17 18:38:00,
2013-03-17 13:39:00,60.2,51.2,29.83,North,353,2.0,4.0,72,0.00,,---,0.00,VWS V14.01,2013-03-17 18:39:00,
2013-03-17 13:42:00,59.9,51.2,29.83,North,4,3.0,4.0,73,0.00,,---,0.00,VWS V14.01,2013-03-17 18:42:00,
2013-03-17 13:43:00,59.9,51.2,29.83,NNE,20,3.0,4.0,73,0.00,,---,0.00,VWS V14.01,2013-03-17 18:43:00,
2013-03-17 13:44:00,59.8,51.1,29.83,NE,34,4.0,4.0,73,0.00,,---,0.00,VWS V14.01,2013-03-17 18:44:00,
2013-03-17 13:47:00,59.9,51.6,29.83,NNW,346,1.0,3.0,74,0.00,,---,0.00,VWS V14.01,2013-03-17 18:47:00,
2013-03-17 13:49:00,59.9,51.6,29.83,North,357,4.0,4.0,74,0.00,,---,0.00,VWS V14.01,2013-03-17 18:49:00,
2013-03-17 13:52:00,60.4,52.1,29.82,North,8,2.0,4.0,74,0.00,,---,0.00,VWS V14.01,2013-03-17 18:52:00,
2013-03-17 13:54:00,60.7,52.4,29.82,NNE,17,3.0,4.0,74,0.00,,---,0.00,VWS V14.01,2013-03-17 18:54:00,
2013-03-17 13:58:00,61.7,52.2,29.82,North,349,1.0,4.0,71,0.00,,---,0.00,VWS V14.01,2013-03-17 18:58:00,
2013-03-17 13:59:00,61.8,52.3,29.82,NNE,18,2.0,6.0,71,0.00,,---,0.00,VWS V14.01,2013-03-17 18:59:00,
2013-03-17 14:03:00,61.7,52.2,29.82,NW,323,1.0,5.0,71,0.00,,---,0.00,VWS V14.01,2013-03-17 19:03:00,
2013-03-17 14:04:00,61.7,52.2,29.82,North,4,3.0,5.0,71,0.00,,---,0.00,VWS V14.01,2013-03-17 19:04:00,
2013-03-17 14:08:00,61.7,52.2,29.81,NNE,22,4.0,5.0,71,0.00,,---,0.00,VWS V14.01,2013-03-17 19:08:00,
2013-03-17 14:09:00,61.6,52.1,29.81,North,4,4.0,5.0,71,0.00,,---,0.00,VWS V14.01,2013-03-17 19:09:00,
2013-03-17 14:10:00,61.6,52.1,29.81,North,359,1.0,5.0,71,0.00,,---,0.00,VWS V14.01,2013-03-17 19:10:00,
2013-03-17 14:13:00,61.6,52.1,29.81,North,3,1.0,5.0,71,0.00,,---,0.00,VWS V14.01,2013-03-17 19:13:00,
2013-03-17 14:14:00,61.6,52.1,29.81,NW,307,1.0,5.0,71,0.00,,---,0.00,VWS V14.01,2013-03-17 19:14:00,
2013-03-17 14:15:00,61.6,52.1,29.81,NW,307,1.0,5.0,71,0.00,,---,0.00,VWS V14.01,2013-03-17 19:15:00,
2013-03-17 14:18:00,61.7,51.8,29.81,North,353,2.0,4.0,70,0.00,,---,0.00,VWS V14.01,2013-03-17 19:18:00,
2013-03-17 14:19:00,61.7,52.2,29.81,North,1,2.0,4.0,71,0.00,,---,0.00,VWS V14.01,2013-03-17 19:19:00,
2013-03-17 14:20:00,61.8,51.9,29.81,North,1,2.0,4.0,70,0.00,,---,0.00,VWS V14.01,2013-03-17 19:20:00,
2013-03-17 14:23:00,62.4,52.1,29.81,NNE,18,4.0,4.0,69,0.00,,---,0.00,VWS V14.01,2013-03-17 19:23:00,
2013-03-17 14:24:00,62.5,52.2,29.80,ENE,60,2.0,4.0,69,0.00,,---,0.00,VWS V14.01,2013-03-17 19:24:00,
2013-03-17 14:25:00,62.6,52.3,29.80,ENE,67,1.0,4.0,69,0.00,,---,0.00,VWS V14.01,2013-03-17 19:25:00,
2013-03-17 14:28:00,62.6,52.3,29.80,ENE,67,4.0,9.0,69,0.00,,---,0.00,VWS V14.01,2013-03-17 19:28:00,
2013-03-17 14:29:00,62.5,52.2,29.80,NE,52,3.0,9.0,69,0.00,,---,0.00,VWS V14.01,2013-03-17 19:29:00,
2013-03-17 14:30:00,62.5,52.2,29.80,NNE,19,2.0,9.0,69,0.00,,---,0.00,VWS V14.01,2013-03-17 19:30:00,
2013-03-17 14:34:00,62.8,52.5,29.79,East,93,1.0,3.0,69,0.00,,---,0.00,VWS V14.01,2013-03-17 19:34:00,
2013-03-17 14:35:00,63.0,53.1,29.80,NNW,335,1.0,4.0,70,0.00,,---,0.00,VWS V14.01,2013-03-17 19:35:00,
2013-03-17 14:39:00,63.7,53.0,29.79,NNE,27,0.0,4.0,68,0.00,,---,0.00,VWS V14.01,2013-03-17 19:39:00,
2013-03-17 14:40:00,63.7,53.0,29.79,NNE,14,4.0,4.0,68,0.00,,---,0.00,VWS V14.01,2013-03-17 19:40:00,
2013-03-17 14:44:00,64.2,53.8,29.79,NNE,24,1.0,4.0,69,0.00,,---,0.00,VWS V14.01,2013-03-17 19:44:00,
2013-03-17 14:45:00,64.3,53.9,29.79,North,6,1.0,4.0,69,0.00,,---,0.00,VWS V14.01,2013-03-17 19:45:00,
2013-03-17 14:49:00,64.8,53.6,29.78,NE,51,0.0,6.0,67,0.00,,---,0.00,VWS V14.01,2013-03-17 19:49:00,
2013-03-17 14:50:00,64.8,53.6,29.78,NNW,343,1.0,6.0,67,0.00,,---,0.00,VWS V14.01,2013-03-17 19:50:00,
2013-03-17 14:54:00,65.0,53.8,29.78,NNE,21,2.0,6.0,67,0.00,,---,0.00,VWS V14.01,2013-03-17 19:54:00,
2013-03-17 14:55:00,65.0,53.8,29.78,North,8,1.0,6.0,67,0.00,,---,0.00,VWS V14.01,2013-03-17 19:55:00,
2013-03-17 14:59:00,65.3,54.1,29.78,NE,41,3.0,6.0,67,0.00,,---,0.00,VWS V14.01,2013-03-17 19:59:00,
2013-03-17 15:00:00,65.3,53.7,29.78,NE,39,1.0,6.0,66,0.00,,---,0.00,VWS V14.01,2013-03-17 20:00:00,
2013-03-17 15:05:00,66.0,53.9,29.78,North,353,2.0,4.0,65,0.00,,---,0.00,VWS V14.01,2013-03-17 20:05:00,
2013-03-17 15:10:00,66.1,53.6,29.77,East,91,4.0,7.0,64,0.00,,---,0.00,VWS V14.01,2013-03-17 20:10:00,
2013-03-17 15:15:00,66.0,54.3,29.77,East,96,3.0,7.0,66,0.00,,---,0.00,VWS V14.01,2013-03-17 20:15:00,
2013-03-17 15:16:00,66.1,54.4,29.77,ENE,77,4.0,5.0,66,0.00,,---,0.00,VWS V14.01,2013-03-17 20:16:00,
2013-03-17 15:20:00,66.2,54.1,29.77,NNW,340,2.0,6.0,65,0.00,,---,0.00,VWS V14.01,2013-03-17 20:20:00,
2013-03-17 15:21:00,66.3,54.2,29.77,NNW,342,2.0,6.0,65,0.00,,---,0.00,VWS V14.01,2013-03-17 20:21:00,
2013-03-17 15:25:00,67.0,54.4,29.77,ESE,121,3.0,6.0,64,0.00,,---,0.00,VWS V14.01,2013-03-17 20:25:00,
2013-03-17 15:26:00,67.1,54.5,29.77,SE,142,2.0,6.0,64,0.00,,---,0.00,VWS V14.01,2013-03-17 20:26:00,
2013-03-17 15:30:00,67.2,54.6,29.76,SE,127,1.0,6.0,64,0.00,,---,0.00,VWS V14.01,2013-03-17 20:30:00,
2013-03-17 15:31:00,67.3,55.2,29.76,SE,141,1.0,2.0,65,0.00,,---,0.00,VWS V14.01,2013-03-17 20:31:00,
2013-03-17 15:35:00,67.7,55.1,29.76,ENE,73,1.0,4.0,64,0.00,,---,0.00,VWS V14.01,2013-03-17 20:35:00,
2013-03-17 15:36:00,67.7,55.1,29.76,ENE,68,1.0,4.0,64,0.00,,---,0.00,VWS V14.01,2013-03-17 20:36:00,
2013-03-17 15:37:00,67.7,54.7,29.76,East,87,3.0,5.0,63,0.00,,---,0.00,VWS V14.01,2013-03-17 20:37:00,
2013-03-17 15:40:00,67.6,55.0,29.76,East,87,2.0,5.0,64,0.00,,---,0.00,VWS V14.01,2013-03-17 20:40:00,
2013-03-17 15:41:00,67.6,55.0,29.76,SE,127,2.0,5.0,64,0.00,,---,0.00,VWS V14.01,2013-03-17 20:41:00,
2013-03-17 15:42:00,67.7,55.1,29.76,ESE,119,1.0,5.0,64,0.00,,---,0.00,VWS V14.01,2013-03-17 20:42:00,
2013-03-17 15:45:00,68.1,55.5,29.75,ESE,117,0.0,0.0,64,0.00,,---,0.00,VWS V14.01,2013-03-17 20:45:00,
2013-03-17 15:46:00,68.3,55.7,29.75,SE,126,2.0,3.0,64,0.00,,---,0.00,VWS V14.01,2013-03-17 20:46:00,
2013-03-17 15:47:00,68.3,55.2,29.75,ESE,123,2.0,3.0,63,0.00,,---,0.00,VWS V14.01,2013-03-17 20:47:00,
2013-03-17 15:50:00,68.6,55.5,29.75,South,188,1.0,3.0,63,0.00,,---,0.00,VWS V14.01,2013-03-17 20:50:00,
2013-03-17 15:51:00,68.9,55.8,29.75,SW,227,1.0,3.0,63,0.00,,---,0.00,VWS V14.01,2013-03-17 20:51:00,
2013-03-17 15:52:00,69.1,56.0,29.75,SW,227,1.0,3.0,63,0.00,,---,0.00,VWS V14.01,2013-03-17 20:52:00,
2013-03-17 15:53:00,69.2,56.1,29.75,SSW,200,1.0,3.0,63,0.00,,---,0.00,VWS V14.01,2013-03-17 20:53:00,
2013-03-17 15:55:00,69.7,56.1,29.75,SSE,149,0.0,3.0,62,0.00,,---,0.00,VWS V14.01,2013-03-17 20:55:00,
2013-03-17 15:57:00,69.9,55.8,29.74,ESE,122,2.0,3.0,61,0.00,,---,0.00,VWS V14.01,2013-03-17 20:57:00,
2013-03-17 15:58:00,69.9,55.8,29.74,NNE,22,2.0,3.0,61,0.00,,---,0.00,VWS V14.01,2013-03-17 20:58:00,
2013-03-17 16:00:00,69.9,55.8,29.74,SE,129,1.0,2.0,61,0.00,,---,0.00,VWS V14.01,2013-03-17 21:00:00,
2013-03-17 16:02:00,69.8,55.8,29.74,SE,134,1.0,2.0,61,0.00,,---,0.00,VWS V14.01,2013-03-17 21:02:00,
2013-03-17 16:03:00,69.6,55.6,29.74,SE,135,1.0,2.0,61,0.00,,---,0.00,VWS V14.01,2013-03-17 21:03:00,
2013-03-17 16:05:00,69.3,55.3,29.74,East,84,2.0,4.0,61,0.00,,---,0.00,VWS V14.01,2013-03-17 21:05:00,
2013-03-17 16:07:00,69.0,55.5,29.74,ENE,70,3.0,5.0,62,0.00,,---,0.00,VWS V14.01,2013-03-17 21:07:00,
2013-03-17 16:08:00,68.8,55.3,29.74,East,82,1.0,5.0,62,0.00,,---,0.00,VWS V14.01,2013-03-17 21:08:00,
2013-03-17 16:11:00,68.5,55.4,29.74,ENE,73,1.0,5.0,63,0.00,,---,0.00,VWS V14.01,2013-03-17 21:11:00,
2013-03-17 16:12:00,68.4,55.3,29.74,East,87,2.0,5.0,63,0.00,,---,0.00,VWS V14.01,2013-03-17 21:12:00,
2013-03-17 16:13:00,68.4,55.3,29.74,East,86,1.0,5.0,63,0.00,,---,0.00,VWS V14.01,2013-03-17 21:13:00,
2013-03-17 16:16:00,68.4,55.8,29.74,NNW,340,0.0,1.0,64,0.00,,---,0.00,VWS V14.01,2013-03-17 21:16:00,
2013-03-17 16:17:00,68.5,55.9,29.74,NNW,335,0.0,2.0,64,0.00,,---,0.00,VWS V14.01,2013-03-17 21:17:00,
2013-03-17 16:18:00,68.5,55.9,29.74,NNW,335,0.0,2.0,64,0.00,,---,0.00,VWS V14.01,2013-03-17 21:18:00,
2013-03-17 16:21:00,68.7,56.0,29.74,NNW,335,0.0,2.0,64,0.00,,---,0.00,VWS V14.01,2013-03-17 21:21:00,
2013-03-17 16:22:00,68.7,56.0,29.74,NNW,335,0.0,2.0,64,0.00,,---,0.00,VWS V14.01,2013-03-17 21:22:00,
2013-03-17 16:23:00,68.8,56.1,29.74,NNW,335,0.0,2.0,64,0.00,,---,0.00,VWS V14.01,2013-03-17 21:23:00,
2013-03-17 16:27:00,69.1,56.4,29.74,NNW,335,0.0,2.0,64,0.00,,---,0.00,VWS V14.01,2013-03-17 21:27:00,
2013-03-17 16:28:00,69.2,56.1,29.74,NNW,335,0.0,2.0,63,0.00,,---,0.00,VWS V14.01,2013-03-17 21:28:00,
2013-03-17 16:29:00,69.2,56.1,29.73,NNW,335,0.0,2.0,63,0.00,,---,0.00,VWS V14.01,2013-03-17 21:29:00,
2013-03-17 16:32:00,69.5,56.4,29.73,North,6,1.0,1.0,63,0.00,,---,0.00,VWS V14.01,2013-03-17 21:32:00,
2013-03-17 16:33:00,69.6,56.5,29.73,North,6,1.0,1.0,63,0.00,,---,0.00,VWS V14.01,2013-03-17 21:33:00,
2013-03-17 16:34:00,69.6,56.5,29.73,North,6,1.0,1.0,63,0.00,,---,0.00,VWS V14.01,2013-03-17 21:34:00,
2013-03-17 16:37:00,70.0,56.8,29.73,East,84,1.0,4.0,63,0.00,,---,0.00,VWS V14.01,2013-03-17 21:37:00,
2013-03-17 16:38:00,70.0,56.8,29.73,North,10,1.0,4.0,63,0.00,,---,0.00,VWS V14.01,2013-03-17 21:38:00,
2013-03-17 16:39:00,70.0,56.4,29.73,North,352,2.0,4.0,62,0.00,,---,0.00,VWS V14.01,2013-03-17 21:39:00,
2013-03-17 16:42:00,69.9,56.3,29.73,East,96,3.0,4.0,62,0.00,,---,0.00,VWS V14.01,2013-03-17 21:42:00,
2013-03-17 16:43:00,69.9,56.3,29.73,East,90,2.0,4.0,62,0.00,,---,0.00,VWS V14.01,2013-03-17 21:43:00,
2013-03-17 16:44:00,69.9,56.3,29.73,East,96,2.0,4.0,62,0.00,,---,0.00,VWS V14.01,2013-03-17 21:44:00,
2013-03-17 16:48:00,69.7,56.6,29.73,East,96,0.0,1.0,63,0.00,,---,0.00,VWS V14.01,2013-03-17 21:48:00,
2013-03-17 16:49:00,69.7,56.6,29.73,East,96,0.0,1.0,63,0.00,,---,0.00,VWS V14.01,2013-03-17 21:49:00,
2013-03-17 16:53:00,69.7,56.6,29.73,East,94,0.0,1.0,63,0.00,,---,0.00,VWS V14.01,2013-03-17 21:53:00,
2013-03-17 16:54:00,69.7,56.6,29.72,East,94,0.0,1.0,63,0.00,,---,0.00,VWS V14.01,2013-03-17 21:54:00,
2013-03-17 16:58:00,69.8,56.7,29.72,WSW,247,1.0,1.0,63,0.00,,---,0.00,VWS V14.01,2013-03-17 21:58:00,
2013-03-17 16:59:00,69.8,56.7,29.72,NNE,28,2.0,3.0,63,0.00,,---,0.00,VWS V14.01,2013-03-17 21:59:00,
2013-03-17 17:03:00,70.1,56.9,29.72,WSW,252,3.0,4.0,63,0.00,,---,0.00,VWS V14.01,2013-03-17 22:03:00,
2013-03-17 17:04:00,70.3,57.1,29.72,West,269,2.0,5.0,63,0.00,,---,0.00,VWS V14.01,2013-03-17 22:04:00,
2013-03-17 17:08:00,70.9,56.3,29.72,SSW,210,3.0,7.0,60,0.00,,---,0.00,VWS V14.01,2013-03-17 22:08:00,
2013-03-17 17:10:00,71.2,56.6,29.72,SW,224,1.0,7.0,60,0.00,,---,0.00,VWS V14.01,2013-03-17 22:10:00,
2013-03-17 17:13:00,71.8,56.7,29.72,South,185,3.0,7.0,59,0.00,,---,0.00,VWS V14.01,2013-03-17 22:13:00,
2013-03-17 17:14:00,71.8,56.7,29.72,South,181,1.0,7.0,59,0.00,,---,0.00,VWS V14.01,2013-03-17 22:14:00,
2013-03-17 17:15:00,71.9,56.3,29.72,South,179,5.0,7.0,58,0.00,,---,0.00,VWS V14.01,2013-03-17 22:15:00,
2013-03-17 17:18:00,72.3,56.2,29.72,SW,223,3.0,11.0,57,0.00,,---,0.00,VWS V14.01,2013-03-17 22:18:00,
2013-03-17 17:19:00,72.3,56.2,29.72,WSW,244,5.0,11.0,57,0.00,,---,0.00,VWS V14.01,2013-03-17 22:19:00,
2013-03-17 17:20:00,72.4,56.3,29.72,SW,217,5.0,11.0,57,0.00,,---,0.00,VWS V14.01,2013-03-17 22:20:00,
2013-03-17 17:23:00,72.5,55.9,29.72,SSW,210,4.0,14.0,56,0.00,,---,0.00,VWS V14.01,2013-03-17 22:23:00,
2013-03-17 17:24:00,72.5,55.9,29.72,WSW,238,4.0,14.0,56,0.00,,---,0.00,VWS V14.01,2013-03-17 22:24:00,
2013-03-17 17:25:00,72.6,56.0,29.72,WSW,240,5.0,14.0,56,0.00,,---,0.00,VWS V14.01,2013-03-17 22:25:00,
2013-03-17 17:29:00,72.6,56.0,29.72,SSW,205,6.0,14.0,56,0.00,,---,0.00,VWS V14.01,2013-03-17 22:29:00,
2013-03-17 17:30:00,72.6,56.5,29.72,WSW,241,4.0,14.0,57,0.00,,---,0.00,VWS V14.01,2013-03-17 22:30:00,
2013-03-17 17:34:00,72.7,56.1,29.72,SSW,209,3.0,10.0,56,0.00,,---,0.00,VWS V14.01,2013-03-17 22:34:00,
2013-03-17 17:35:00,72.8,56.2,29.72,SW,214,8.0,11.0,56,0.00,,---,0.00,VWS V14.01,2013-03-17 22:35:00,
2013-03-17 17:39:00,72.8,55.7,29.72,West,273,10.0,12.0,55,0.00,,---,0.00,VWS V14.01,2013-03-17 22:39:00,
2013-03-17 17:40:00,72.8,55.7,29.71,South,181,6.0,12.0,55,0.00,,---,0.00,VWS V14.01,2013-03-17 22:40:00,
2013-03-17 17:44:00,72.9,55.8,29.71,SW,234,4.0,12.0,55,0.00,,---,0.00,VWS V14.01,2013-03-17 22:44:00,
2013-03-17 17:45:00,72.9,55.8,29.72,SW,226,5.0,12.0,55,0.00,,---,0.00,VWS V14.01,2013-03-17 22:45:00,
2013-03-17 17:49:00,72.7,55.6,29.71,WSW,243,2.0,9.0,55,0.00,,---,0.00,VWS V14.01,2013-03-17 22:49:00,
2013-03-17 17:50:00,72.7,55.6,29.71,SSW,202,5.0,9.0,55,0.00,,---,0.00,VWS V14.01,2013-03-17 22:50:00,
2013-03-17 17:54:00,72.6,55.5,29.71,SSW,200,6.0,12.0,55,0.00,,---,0.00,VWS V14.01,2013-03-17 22:54:00,
2013-03-17 17:55:00,72.6,55.5,29.71,SSW,210,3.0,12.0,55,0.00,,---,0.00,VWS V14.01,2013-03-17 22:55:00,
2013-03-17 17:59:00,72.4,55.3,29.71,South,179,5.0,12.0,55,0.00,,---,0.00,VWS V14.01,2013-03-17 22:59:00,
2013-03-17 18:00:00,72.4,55.3,29.71,SW,223,4.0,12.0,55,0.00,,---,0.00,VWS V14.01,2013-03-17 23:00:00,
2013-03-17 18:04:00,72.3,55.7,29.71,South,186,6.0,9.0,56,0.00,,---,0.00,VWS V14.01,2013-03-17 23:04:00,
2013-03-17 18:05:00,72.3,55.7,29.71,SSW,211,7.0,10.0,56,0.00,,---,0.00,VWS V14.01,2013-03-17 23:05:00,
2013-03-17 18:09:00,72.2,55.2,29.71,South,169,5.0,10.0,55,0.00,,---,0.00,VWS V14.01,2013-03-17 23:09:00,
2013-03-17 18:10:00,72.2,55.2,29.71,SW,223,4.0,10.0,55,0.00,,---,0.00,VWS V14.01,2013-03-17 23:10:00,
2013-03-17 18:15:00,72.1,55.1,29.71,SW,231,2.0,10.0,55,0.00,,---,0.00,VWS V14.01,2013-03-17 23:15:00,
2013-03-17 18:20:00,72.0,55.5,29.71,SW,219,3.0,12.0,56,0.00,,---,0.00,VWS V14.01,2013-03-17 23:20:00,
2013-03-17 18:21:00,71.9,54.9,29.71,SSW,205,3.0,12.0,55,0.00,,---,0.00,VWS V14.01,2013-03-17 23:21:00,
2013-03-17 18:25:00,71.9,55.4,29.71,WSW,241,3.0,12.0,56,0.00,,---,0.00,VWS V14.01,2013-03-17 23:25:00,
2013-03-17 18:27:00,71.8,55.3,29.71,SSW,200,6.0,12.0,56,0.00,,---,0.00,VWS V14.01,2013-03-17 23:27:00,
2013-03-17 18:30:00,71.8,55.3,29.72,South,191,5.0,12.0,56,0.00,,---,0.00,VWS V14.01,2013-03-17 23:30:00,
2013-03-17 18:32:00,71.8,54.8,29.71,SW,233,3.0,8.0,55,0.00,,---,0.00,VWS V14.01,2013-03-17 23:32:00,
2013-03-17 18:35:00,71.8,55.3,29.71,SSW,197,9.0,10.0,56,0.00,,---,0.00,VWS V14.01,2013-03-17 23:35:00,
2013-03-17 18:37:00,71.8,55.3,29.71,SSW,211,2.0,11.0,56,0.00,,---,0.00,VWS V14.01,2013-03-17 23:37:00,
2013-03-17 18:40:00,71.7,55.2,29.71,WSW,245,7.0,11.0,56,0.00,,---,0.00,VWS V14.01,2013-03-17 23:40:00,
2013-03-17 18:41:00,71.7,55.2,29.71,WSW,240,8.0,11.0,56,0.00,,---,0.00,VWS V14.01,2013-03-17 23:41:00,
2013-03-17 18:42:00,71.7,55.2,29.71,SSW,202,7.0,11.0,56,0.00,,---,0.00,VWS V14.01,2013-03-17 23:42:00,
2013-03-17 18:45:00,71.6,55.1,29.72,SW,219,6.0,11.0,56,0.00,,---,0.00,VWS V14.01,2013-03-17 23:45:00,
2013-03-17 18:46:00,71.6,55.1,29.72,SW,229,4.0,8.0,56,0.00,,---,0.00,VWS V14.01,2013-03-17 23:46:00,
2013-03-17 18:47:00,71.6,55.0,29.72,SSW,212,2.0,8.0,56,0.00,,,0.00,weatherlink.com 1.10,2013-03-17 23:47:00,
2013-03-17 18:50:00,71.6,55.1,29.72,SW,233,4.0,8.0,56,0.00,,---,0.00,VWS V14.01,2013-03-17 23:50:00,
2013-03-17 18:51:00,71.5,55.5,29.72,WSW,251,2.0,8.0,57,0.00,,---,0.00,VWS V14.01,2013-03-17 23:51:00,
2013-03-17 18:53:00,71.5,55.0,29.72,SW,224,2.0,8.0,56,0.00,,---,0.00,VWS V14.01,2013-03-17 23:53:00,
2013-03-17 18:55:00,71.4,55.4,29.72,WSW,243,2.0,8.0,57,0.00,,---,0.00,VWS V14.01,2013-03-17 23:55:00,
2013-03-17 18:56:00,71.4,54.9,29.72,SW,225,2.0,8.0,56,0.00,,---,0.00,VWS V14.01,2013-03-17 23:56:00,
2013-03-17 18:57:00,71.4,54.9,29.72,WSW,254,3.0,8.0,56,0.00,,---,0.00,VWS V14.01,2013-03-17 23:57:00,
2013-03-17 18:58:00,71.4,54.9,29.72,SSW,195,3.0,8.0,56,0.00,,---,0.00,VWS V14.01,2013-03-17 23:58:00,
2013-03-17 19:00:00,71.4,55.4,29.72,WSW,238,6.0,8.0,57,0.00,,---,0.00,VWS V14.01,2013-03-18 00:00:00,
2013-03-17 19:02:00,71.4,54.9,29.72,SSW,200,4.0,6.0,56,0.00,,---,0.00,VWS V14.01,2013-03-18 00:02:00,
2013-03-17 19:03:00,71.3,55.3,29.72,SW,229,2.0,6.0,57,0.00,,---,0.00,VWS V14.01,2013-03-18 00:03:00,
2013-03-17 19:05:00,71.3,54.8,29.72,SW,231,3.0,7.0,56,0.00,,---,0.00,VWS V14.01,2013-03-18 00:05:00,
2013-03-17 19:07:00,71.3,55.3,29.72,South,174,4.0,7.0,57,0.00,,---,0.00,VWS V14.01,2013-03-18 00:07:00,
2013-03-17 19:08:00,71.3,54.8,29.72,SSW,207,3.0,7.0,56,0.00,,---,0.00,VWS V14.01,2013-03-18 00:08:00,
2013-03-17 19:10:00,71.2,55.2,29.72,SW,218,4.0,7.0,57,0.00,,---,0.00,VWS V14.01,2013-03-18 00:10:00,
2013-03-17 19:12:00,71.2,55.2,29.72,SW,220,3.0,7.0,57,0.00,,---,0.00,VWS V14.01,2013-03-18 00:12:00,
2013-03-17 19:13:00,71.2,55.2,29.72,SW,217,3.0,7.0,57,0.00,,---,0.00,VWS V14.01,2013-03-18 00:13:00,
2013-03-17 19:15:00,71.1,55.1,29.72,South,180,2.0,7.0,57,0.00,,---,0.00,VWS V14.01,2013-03-18 00:15:00,
2013-03-17 19:17:00,71.1,55.1,29.72,SSW,207,2.0,6.0,57,0.00,,---,0.00,VWS V14.01,2013-03-18 00:17:00,
2013-03-17 19:18:00,71.1,55.1,29.72,SW,230,3.0,7.0,57,0.00,,---,0.00,VWS V14.01,2013-03-18 00:18:00,
2013-03-17 19:20:00,71.1,55.1,29.72,SSW,202,5.0,7.0,57,0.00,,---,0.00,VWS V14.01,2013-03-18 00:20:00,
2013-03-17 19:22:00,71.1,55.1,29.72,SW,226,4.0,7.0,57,0.00,,---,0.00,VWS V14.01,2013-03-18 00:22:00,
2013-03-17 19:23:00,71.1,55.1,29.72,SSW,207,2.0,7.0,57,0.00,,---,0.00,VWS V14.01,2013-03-18 00:23:00,
2013-03-17 19:25:00,71.0,55.0,29.72,South,170,2.0,7.0,57,0.00,,---,0.00,VWS V14.01,2013-03-18 00:25:00,
2013-03-17 19:27:00,70.9,54.9,29.72,SSW,209,4.0,7.0,57,0.00,,---,0.00,VWS V14.01,2013-03-18 00:27:00,
2013-03-17 19:28:00,70.9,54.9,29.72,SW,224,2.0,7.0,57,0.00,,---,0.00,VWS V14.01,2013-03-18 00:28:00,
2013-03-17 19:30:00,70.8,55.3,29.72,SSW,204,1.0,7.0,58,0.00,,---,0.00,VWS V14.01,2013-03-18 00:30:00,
2013-03-17 19:33:00,70.7,55.2,29.72,SSW,210,3.0,3.0,58,0.00,,---,0.00,VWS V14.01,2013-03-18 00:33:00,
2013-03-17 19:35:00,70.6,55.1,29.72,SW,218,2.0,3.0,58,0.00,,---,0.00,VWS V14.01,2013-03-18 00:35:00,
2013-03-17 19:38:00,70.5,55.0,29.72,SW,228,3.0,4.0,58,0.00,,---,0.00,VWS V14.01,2013-03-18 00:38:00,
2013-03-17 19:40:00,70.4,55.4,29.71,SW,225,2.0,5.0,59,0.00,,---,0.00,VWS V14.01,2013-03-18 00:40:00,
2013-03-17 19:43:00,70.3,55.3,29.71,SSW,202,2.0,5.0,59,0.00,,---,0.00,VWS V14.01,2013-03-18 00:43:00,
2013-03-17 19:44:00,70.3,55.3,29.71,SSW,213,4.0,5.0,59,0.00,,---,0.00,VWS V14.01,2013-03-18 00:44:00,
2013-03-17 19:45:00,70.2,55.2,29.71,SW,235,0.0,0.0,59,0.00,,---,0.00,VWS V14.01,2013-03-18 00:45:00,
2013-03-17 19:48:00,70.1,55.1,29.71,SW,233,2.0,7.0,59,0.00,,---,0.00,VWS V14.01,2013-03-18 00:48:00,
2013-03-17 19:49:00,70.2,55.2,29.71,South,172,3.0,7.0,59,0.00,,---,0.00,VWS V14.01,2013-03-18 00:49:00,
2013-03-17 19:50:00,70.1,55.1,29.71,SSW,210,4.0,7.0,59,0.00,,---,0.00,VWS V14.01,2013-03-18 00:50:00,
2013-03-17 19:53:00,70.1,54.7,29.71,SSW,207,5.0,7.0,58,0.00,,---,0.00,VWS V14.01,2013-03-18 00:53:00,
2013-03-17 19:54:00,70.1,55.1,29.71,SW,220,0.0,7.0,59,0.00,,---,0.00,VWS V14.01,2013-03-18 00:54:00,
2013-03-17 19:55:00,70.1,54.7,29.71,WSW,240,2.0,7.0,58,0.00,,---,0.00,VWS V14.01,2013-03-18 00:55:00,
2013-03-17 19:58:00,70.1,55.1,29.71,WSW,240,2.0,7.0,59,0.00,,---,0.00,VWS V14.01,2013-03-18 00:58:00,
2013-03-17 19:59:00,70.1,54.7,29.71,South,172,4.0,12.0,58,0.00,,---,0.00,VWS V14.01,2013-03-18 00:59:00,
2013-03-17 20:00:00,70.1,54.7,29.71,SSW,205,7.0,7.0,58,0.00,,---,0.00,VWS V14.01,2013-03-18 01:00:00,
2013-03-17 20:03:00,70.1,54.7,29.71,SW,217,5.0,8.0,58,0.00,,---,0.00,VWS V14.01,2013-03-18 01:03:00,
2013-03-17 20:04:00,70.1,54.7,29.71,SW,224,6.0,8.0,58,0.00,,---,0.00,VWS V14.01,2013-03-18 01:04:00,
2013-03-17 20:05:00,70.1,54.7,29.71,SW,231,4.0,8.0,58,0.00,,---,0.00,VWS V14.01,2013-03-18 01:05:00,
2013-03-17 20:08:00,70.1,54.7,29.70,SSW,209,2.0,8.0,58,0.00,,---,0.00,VWS V14.01,2013-03-18 01:08:00,
2013-03-17 20:09:00,70.1,54.7,29.70,SW,235,2.0,8.0,58,0.00,,---,0.00,VWS V14.01,2013-03-18 01:09:00,
2013-03-17 20:11:00,70.0,54.6,29.70,SW,235,2.0,8.0,58,0.00,,---,0.00,VWS V14.01,2013-03-18 01:11:00,
2013-03-17 20:13:00,69.9,54.5,29.70,SW,218,1.0,8.0,58,0.00,,---,0.00,VWS V14.01,2013-03-18 01:13:00,
2013-03-17 20:14:00,69.9,54.5,29.70,SW,218,1.0,8.0,58,0.00,,---,0.00,VWS V14.01,2013-03-18 01:14:00,
2013-03-17 20:16:00,69.9,54.5,29.70,SW,235,1.0,2.0,58,0.00,,---,0.00,VWS V14.01,2013-03-18 01:16:00,
2013-03-17 20:19:00,69.8,54.4,29.70,SW,233,1.0,6.0,58,0.00,,---,0.00,VWS V14.01,2013-03-18 01:19:00,
2013-03-17 20:21:00,69.8,54.4,29.70,SW,214,3.0,6.0,58,0.00,,---,0.00,VWS V14.01,2013-03-18 01:21:00,
2013-03-17 20:24:00,69.7,54.3,29.70,SW,216,1.0,6.0,58,0.00,,---,0.00,VWS V14.01,2013-03-18 01:24:00,
2013-03-17 20:26:00,69.6,54.2,29.70,SSW,211,3.0,6.0,58,0.00,,---,0.00,VWS V14.01,2013-03-18 01:26:00,
2013-03-17 20:29:00,69.6,54.2,29.70,SSW,211,2.0,9.0,58,0.00,,---,0.00,VWS V14.01,2013-03-18 01:29:00,
2013-03-17 20:31:00,69.6,54.2,29.70,SSW,202,2.0,3.0,58,0.00,,---,0.00,VWS V14.01,2013-03-18 01:31:00,
2013-03-17 20:34:00,69.6,54.2,29.70,SW,231,3.0,6.0,58,0.00,,---,0.00,VWS V14.01,2013-03-18 01:34:00,
2013-03-17 20:36:00,69.6,54.2,29.70,SSW,195,7.0,7.0,58,0.00,,---,0.00,VWS V14.01,2013-03-18 01:36:00,
2013-03-17 20:39:00,69.6,54.2,29.70,SSW,211,7.0,8.0,58,0.00,,---,0.00,VWS V14.01,2013-03-18 01:39:00,
2013-03-17 20:41:00,69.6,54.2,29.70,SSW,212,3.0,8.0,58,0.00,,---,0.00,VWS V14.01,2013-03-18 01:41:00,
2013-03-17 20:44:00,69.5,54.1,29.70,SSW,209,4.0,8.0,58,0.00,,---,0.00,VWS V14.01,2013-03-18 01:44:00,
2013-03-17 20:46:00,69.4,54.0,29.70,South,191,0.0,6.0,58,0.00,,---,0.00,VWS V14.01,2013-03-18 01:46:00,
2013-03-17 20:49:00,69.4,54.0,29.70,WSW,240,2.0,6.0,58,0.00,,---,0.00,VWS V14.01,2013-03-18 01:49:00,
2013-03-17 20:51:00,69.3,53.9,29.70,WSW,237,4.0,6.0,58,0.00,,---,0.00,VWS V14.01,2013-03-18 01:51:00,
2013-03-17 20:54:00,69.1,53.7,29.70,SW,231,3.0,6.0,58,0.00,,---,0.00,VWS V14.01,2013-03-18 01:54:00,
2013-03-17 20:57:00,69.1,53.7,29.70,SW,219,2.0,6.0,58,0.00,,---,0.00,VWS V14.01,2013-03-18 01:57:00,
2013-03-17 20:59:00,69.0,53.6,29.70,SW,235,1.0,6.0,58,0.00,,---,0.00,VWS V14.01,2013-03-18 01:59:00,
2013-03-17 21:00:00,69.0,53.6,29.70,SW,228,2.0,6.0,58,0.00,,---,0.00,VWS V14.01,2013-03-18 02:00:00,
2013-03-17 21:02:00,69.0,53.6,29.70,SW,235,3.0,6.0,58,0.00,,---,0.00,VWS V14.01,2013-03-18 02:02:00,
2013-03-17 21:04:00,69.0,53.6,29.70,SSW,213,3.0,6.0,58,0.00,,---,0.00,VWS V14.01,2013-03-18 02:04:00,
2013-03-17 21:05:00,68.9,53.5,29.70,SSW,213,2.0,6.0,58,0.00,,---,0.00,VWS V14.01,2013-03-18 02:05:00,
2013-03-17 21:07:00,68.8,53.4,29.70,SW,214,3.0,6.0,58,0.00,,---,0.00,VWS V14.01,2013-03-18 02:07:00,
2013-03-17 21:09:00,68.8,53.4,29.70,SW,220,1.0,6.0,58,0.00,,---,0.00,VWS V14.01,2013-03-18 02:09:00,
2013-03-17 21:10:00,68.8,53.4,29.70,SW,218,2.0,6.0,58,0.00,,---,0.00,VWS V14.01,2013-03-18 02:10:00,
2013-03-17 21:12:00,68.8,53.4,29.71,SW,218,0.0,6.0,58,0.00,,---,0.00,VWS V14.01,2013-03-18 02:12:00,
2013-03-17 21:14:00,68.7,53.8,29.70,SW,220,2.0,6.0,59,0.00,,---,0.00,VWS V14.01,2013-03-18 02:14:00,
2013-03-17 21:15:00,68.6,53.7,29.70,SW,220,1.0,6.0,59,0.00,,---,0.00,VWS V14.01,2013-03-18 02:15:00,
2013-03-17 21:17:00,68.5,53.6,29.70,SSW,209,1.0,4.0,59,0.00,,---,0.00,VWS V14.01,2013-03-18 02:17:00,
2013-03-17 21:19:00,68.4,53.5,29.71,SW,218,2.0,5.0,59,0.00,,---,0.00,VWS V14.01,2013-03-18 02:19:00,
2013-03-17 21:20:00,68.4,53.5,29.71,SW,231,3.0,5.0,59,0.00,,---,0.00,VWS V14.01,2013-03-18 02:20:00,
2013-03-17 21:22:00,68.3,53.4,29.71,SSW,211,3.0,5.0,59,0.00,,---,0.00,VWS V14.01,2013-03-18 02:22:00,
2013-03-17 21:24:00,68.2,53.3,29.71,SW,228,2.0,5.0,59,0.00,,---,0.00,VWS V14.01,2013-03-18 02:24:00,
2013-03-17 21:25:00,68.1,53.2,29.71,WSW,238,3.0,5.0,59,0.00,,---,0.00,VWS V14.01,2013-03-18 02:25:00,
2013-03-17 21:27:00,68.0,53.2,29.71,SSW,212,3.0,5.0,59,0.00,,---,0.00,VWS V14.01,2013-03-18 02:27:00,
2013-03-17 21:29:00,68.0,53.2,29.71,SW,218,2.0,6.0,59,0.00,,---,0.00,VWS V14.01,2013-03-18 02:29:00,
2013-03-17 21:30:00,68.0,53.2,29.71,SSW,212,1.0,6.0,59,0.00,,---,0.00,VWS V14.01,2013-03-18 02:30:00,
2013-03-17 21:32:00,67.9,53.1,29.71,West,260,1.0,4.0,59,0.00,,---,0.00,VWS V14.01,2013-03-18 02:32:00,
2013-03-17 21:34:00,67.8,53.0,29.71,SW,219,2.0,4.0,59,0.00,,---,0.00,VWS V14.01,2013-03-18 02:34:00,
2013-03-17 21:35:00,67.7,52.9,29.71,SW,235,1.0,4.0,59,0.00,,---,0.00,VWS V14.01,2013-03-18 02:35:00,
2013-03-17 21:37:00,67.7,52.9,29.71,WSW,249,1.0,4.0,59,0.00,,---,0.00,VWS V14.01,2013-03-18 02:37:00,
2013-03-17 21:39:00,67.6,53.2,29.71,WSW,237,1.0,4.0,60,0.00,,---,0.00,VWS V14.01,2013-03-18 02:39:00,
2013-03-17 21:40:00,67.6,53.2,29.71,South,170,3.0,4.0,60,0.00,,---,0.00,VWS V14.01,2013-03-18 02:40:00,
2013-03-17 21:42:00,67.6,52.8,29.71,WSW,237,2.0,4.0,59,0.00,,---,0.00,VWS V14.01,2013-03-18 02:42:00,
2013-03-17 21:44:00,67.6,52.8,29.71,SSW,211,3.0,6.0,59,0.00,,---,0.00,VWS V14.01,2013-03-18 02:44:00,
2013-03-17 21:45:00,67.6,52.8,29.71,SSW,211,4.0,6.0,59,0.00,,---,0.00,VWS V14.01,2013-03-18 02:45:00,
2013-03-17 21:47:00,67.6,53.2,29.71,SSW,195,3.0,4.0,60,0.00,,---,0.00,VWS V14.01,2013-03-18 02:47:00,
2013-03-17 21:50:00,67.6,52.8,29.71,SSW,213,3.0,6.0,59,0.00,,---,0.00,VWS V14.01,2013-03-18 02:50:00,
2013-03-17 21:52:00,67.5,53.1,29.71,SSW,202,3.0,6.0,60,0.00,,---,0.00,VWS V14.01,2013-03-18 02:52:00,
2013-03-17 21:55:00,67.4,53.0,29.71,SW,218,2.0,6.0,60,0.00,,---,0.00,VWS V14.01,2013-03-18 02:55:00,
2013-03-17 21:58:00,67.3,53.0,29.71,SSW,212,3.0,6.0,60,0.00,,---,0.00,VWS V14.01,2013-03-18 02:58:00,
2013-03-17 22:00:00,67.3,53.0,29.71,West,268,7.0,8.0,60,0.00,,---,0.00,VWS V14.01,2013-03-18 03:00:00,
2013-03-17 22:01:00,67.3,53.0,29.71,SSW,213,2.0,4.0,60,0.00,,---,0.00,VWS V14.01,2013-03-18 03:01:00,
2013-03-17 22:03:00,67.3,53.0,29.71,WSW,253,2.0,6.0,60,0.00,,---,0.00,VWS V14.01,2013-03-18 03:03:00,
2013-03-17 22:05:00,67.3,53.0,29.71,SSW,206,2.0,6.0,60,0.00,,---,0.00,VWS V14.01,2013-03-18 03:05:00,
2013-03-17 22:06:00,67.3,53.0,29.71,SW,216,2.0,6.0,60,0.00,,---,0.00,VWS V14.01,2013-03-18 03:06:00,
2013-03-17 22:08:00,67.2,52.9,29.71,SW,214,3.0,6.0,60,0.00,,---,0.00,VWS V14.01,2013-03-18 03:08:00,
2013-03-17 22:10:00,67.2,52.9,29.71,South,189,2.0,6.0,60,0.00,,---,0.00,VWS V14.01,2013-03-18 03:10:00,
2013-03-17 22:11:00,67.1,53.2,29.71,SW,231,1.0,6.0,61,0.00,,---,0.00,VWS V14.01,2013-03-18 03:11:00,
2013-03-17 22:13:00,67.1,53.2,29.71,SW,220,1.0,6.0,61,0.00,,---,0.00,VWS V14.01,2013-03-18 03:13:00,
2013-03-17 22:15:00,67.1,53.2,29.71,SW,225,1.0,6.0,61,0.00,,---,0.00,VWS V14.01,2013-03-18 03:15:00,
2013-03-17 22:16:00,67.1,53.2,29.71,SW,233,1.0,2.0,61,0.00,,---,0.00,VWS V14.01,2013-03-18 03:16:00,
2013-03-17 22:18:00,67.0,53.1,29.71,SSW,203,2.0,5.0,61,0.00,,---,0.00,VWS V14.01,2013-03-18 03:18:00,
2013-03-17 22:20:00,67.0,53.1,29.71,SSW,213,2.0,5.0,61,0.00,,---,0.00,VWS V14.01,2013-03-18 03:20:00,
2013-03-17 22:22:00,67.0,53.1,29.70,WSW,256,1.0,5.0,61,0.00,,---,0.00,VWS V14.01,2013-03-18 03:22:00,
2013-03-17 22:23:00,67.0,53.1,29.71,SW,216,2.0,5.0,61,0.00,,---,0.00,VWS V14.01,2013-03-18 03:23:00,
2013-03-17 22:25:00,66.9,53.0,29.70,SW,218,3.0,5.0,61,0.00,,---,0.00,VWS V14.01,2013-03-18 03:25:00,
2013-03-17 22:26:00,66.9,53.0,29.71,South,172,1.0,5.0,61,0.00,,---,0.00,VWS V14.01,2013-03-18 03:26:00,
2013-03-17 22:27:00,66.9,53.5,29.71,SW,214,3.0,5.0,62,0.00,,---,0.00,VWS V14.01,2013-03-18 03:27:00,
2013-03-17 22:28:00,66.8,53.4,29.70,SSW,200,2.0,5.0,62,0.00,,---,0.00,VWS V14.01,2013-03-18 03:28:00,
2013-03-17 22:30:00,66.8,53.4,29.70,SSW,209,0.0,5.0,62,0.00,,---,0.00,VWS V14.01,2013-03-18 03:30:00,
2013-03-17 22:31:00,66.8,53.4,29.70,SSW,207,1.0,3.0,62,0.00,,---,0.00,VWS V14.01,2013-03-18 03:31:00,
2013-03-17 22:32:00,66.8,53.4,29.70,SSW,207,0.0,3.0,62,0.00,,---,0.00,VWS V14.01,2013-03-18 03:32:00,
2013-03-17 22:33:00,66.7,53.3,29.70,SW,233,2.0,3.0,62,0.00,,---,0.00,VWS V14.01,2013-03-18 03:33:00,
2013-03-17 22:35:00,66.7,53.3,29.70,SW,224,1.0,3.0,62,0.00,,---,0.00,VWS V14.01,2013-03-18 03:35:00,
2013-03-17 22:36:00,66.6,53.2,29.70,SW,231,3.0,4.0,62,0.00,,---,0.00,VWS V14.01,2013-03-18 03:36:00,
2013-03-17 22:37:00,66.6,53.2,29.70,SW,231,1.0,4.0,62,0.00,,---,0.00,VWS V14.01,2013-03-18 03:37:00,
2013-03-17 22:38:00,66.6,53.2,29.70,SW,231,0.0,4.0,62,0.00,,---,0.00,VWS V14.01,2013-03-18 03:38:00,
2013-03-17 22:40:00,66.6,53.6,29.70,SW,219,2.0,4.0,63,0.00,,---,0.00,VWS V14.01,2013-03-18 03:40:00,
2013-03-17 22:41:00,66.6,53.6,29.70,SW,217,1.0,4.0,63,0.00,,---,0.00,VWS V14.01,2013-03-18 03:41:00,
2013-03-17 22:42:00,66.6,53.6,29.70,SW,217,2.0,4.0,63,0.00,,---,0.00,VWS V14.01,2013-03-18 03:42:00,
2013-03-17 22:43:00,66.6,53.6,29.69,SSW,212,2.0,4.0,63,0.00,,---,0.00,VWS V14.01,2013-03-18 03:43:00,
2013-03-17 22:45:00,66.6,53.6,29.69,SW,216,1.0,2.0,63,0.00,,---,0.00,VWS V14.01,2013-03-18 03:45:00,
2013-03-17 22:47:00,66.6,54.1,29.69,WSW,242,1.0,3.0,64,0.00,,---,0.00,VWS V14.01,2013-03-18 03:47:00,
2013-03-17 22:49:00,66.6,54.5,29.69,SSW,212,1.0,4.0,65,0.00,,---,0.00,VWS V14.01,2013-03-18 03:49:00,
2013-03-17 22:50:00,66.5,54.8,29.69,SW,214,1.0,4.0,66,0.00,,---,0.00,VWS V14.01,2013-03-18 03:50:00,
2013-03-17 22:52:00,66.4,54.7,29.69,SW,224,1.0,4.0,66,0.00,,---,0.00,VWS V14.01,2013-03-18 03:52:00,
2013-03-17 22:54:00,66.3,54.6,29.69,SW,218,2.0,5.0,66,0.00,,---,0.00,VWS V14.01,2013-03-18 03:54:00,
2013-03-17 22:55:00,66.2,54.5,29.69,SW,224,2.0,5.0,66,0.00,,---,0.00,VWS V14.01,2013-03-18 03:55:00,
2013-03-17 22:57:00,66.2,54.5,29.69,SW,219,4.0,5.0,66,0.00,,---,0.00,VWS V14.01,2013-03-18 03:57:00,
2013-03-17 22:59:00,66.3,55.0,29.69,SW,214,3.0,5.0,67,0.00,,---,0.00,VWS V14.01,2013-03-18 03:59:00,
2013-03-17 23:00:00,66.3,55.0,29.69,SW,218,2.0,5.0,67,0.00,,---,0.00,VWS V14.01,2013-03-18 04:00:00,
2013-03-17 23:05:00,66.0,56.3,29.69,West,274,1.0,6.0,71,0.05,,---,0.05,VWS V14.01,2013-03-18 04:05:00,
2013-03-17 23:10:00,64.8,57.4,29.70,WNW,295,1.0,6.0,77,0.05,,---,0.05,VWS V14.01,2013-03-18 04:10:00,
2013-03-17 23:11:00,64.6,57.2,29.70,WNW,288,3.0,6.0,77,0.05,,---,0.05,VWS V14.01,2013-03-18 04:11:00,
2013-03-17 23:15:00,63.7,57.4,29.71,WSW,237,3.0,6.0,80,0.06,,---,0.06,VWS V14.01,2013-03-18 04:15:00,
2013-03-17 23:16:00,63.4,57.5,29.70,WSW,240,0.0,2.0,81,0.13,,---,0.13,VWS V14.01,2013-03-18 04:16:00,
2013-03-17 23:20:00,62.8,57.6,29.70,WSW,240,1.0,2.0,83,0.14,,---,0.14,VWS V14.01,2013-03-18 04:20:00,
2013-03-17 23:21:00,62.5,57.6,29.69,WSW,240,0.0,2.0,84,0.14,,---,0.14,VWS V14.01,2013-03-18 04:21:00,
2013-03-17 23:25:00,61.9,57.7,29.69,SW,218,1.0,2.0,86,0.14,,---,0.14,VWS V14.01,2013-03-18 04:25:00,
2013-03-17 23:27:00,61.8,57.6,29.68,SSW,213,7.0,8.0,86,0.14,,---,0.14,VWS V14.01,2013-03-18 04:27:00,
2013-03-17 23:30:00,62.1,57.5,29.68,SW,216,1.0,8.0,85,0.14,,---,0.14,VWS V14.01,2013-03-18 04:30:00,
2013-03-17 23:31:00,62.1,57.5,29.68,SW,216,0.0,1.0,85,0.14,,---,0.14,VWS V14.01,2013-03-18 04:31:00,
2013-03-17 23:32:00,62.2,57.6,29.68,SW,216,1.0,1.0,85,0.14,,---,0.14,VWS V14.01,2013-03-18 04:32:00,
2013-03-17 23:35:00,62.2,57.6,29.68,SW,219,1.0,4.0,85,0.14,,---,0.14,VWS V14.01,2013-03-18 04:35:00,
2013-03-17 23:36:00,62.2,57.6,29.68,SSW,199,3.0,4.0,85,0.14,,---,0.14,VWS V14.01,2013-03-18 04:36:00,
2013-03-17 23:37:00,62.2,57.3,29.68,SW,228,1.0,4.0,84,0.14,,---,0.14,VWS V14.01,2013-03-18 04:37:00,
2013-03-17 23:40:00,62.2,57.6,29.68,WSW,238,3.0,4.0,85,0.14,,---,0.14,VWS V14.01,2013-03-18 04:40:00,
2013-03-17 23:41:00,62.2,57.6,29.68,SSW,207,2.0,4.0,85,0.14,,---,0.14,VWS V14.01,2013-03-18 04:41:00,
2013-03-17 23:42:00,62.1,57.5,29.68,SW,226,2.0,4.0,85,0.14,,---,0.14,VWS V14.01,2013-03-18 04:42:00,
2013-03-17 23:45:00,62.1,57.5,29.68,SW,219,2.0,2.0,85,0.14,,---,0.14,VWS V14.01,2013-03-18 04:45:00,
2013-03-17 23:46:00,62.2,57.6,29.68,SW,226,2.0,2.0,85,0.14,,---,0.14,VWS V14.01,2013-03-18 04:46:00,
2013-03-17 23:47:00,62.2,57.6,29.68,WSW,247,2.0,2.0,85,0.14,,---,0.14,VWS V14.01,2013-03-18 04:47:00,
2013-03-17 23:50:00,62.4,57.5,29.68,SW,216,4.0,6.0,84,0.14,,---,0.14,VWS V14.01,2013-03-18 04:50:00,
2013-03-17 23:51:00,62.5,57.6,29.68,SSW,200,7.0,8.0,84,0.14,,---,0.14,VWS V14.01,2013-03-18 04:51:00,
2013-03-17 23:52:00,62.8,57.6,29.68,South,169,3.0,8.0,83,0.14,,---,0.14,VWS V14.01,2013-03-18 04:52:00,
2013-03-17 23:55:00,63.2,57.6,29.68,South,182,5.0,8.0,82,0.14,,---,0.14,VWS V14.01,2013-03-18 04:55:00,
2013-03-17 23:56:00,63.2,57.6,29.68,WSW,255,3.0,8.0,82,0.14,,---,0.14,VWS V14.01,2013-03-18 04:56:00,
2013-03-17 23:57:00,63.4,57.8,29.68,SW,233,2.0,8.0,82,0.14,,---,0.14,VWS V14.01,2013-03-18 04:57:00,